Time,TemperatureF,DewpointF,PressureIn,WindDirection,WindDirectionDegrees,WindSpeedMPH,WindSpeedGustMPH,Humidity,HourlyPrecipIn,Conditions,Clouds,dailyrainin,SoftwareType,DateUTC
2013-05-06 00:00:00,52.0,49.8,30.06,WNW,297,7.8,8.1,92,0.00,,BKN028,0.00,VWS V14.01,2013-05-06 05:00:00,
2013-05-06 00:02:00,51.8,49.7,30.06,West,261,5.0,9.3,92,0.00,,OVC017,0.00,VWS V14.01,2013-05-06 05:02:00,
2013-05-06 00:04:00,51.8,49.7,30.06,WNW,303,7.2,13.1,92,0.00,,BKN028,0.00,VWS V14.01,2013-05-06 05:04:00,
2013-05-06 00:06:00,51.8,49.7,30.06,WNW,300,4.4,7.6,92,0.00,,BKN028,0.00,VWS V14.01,2013-05-06 05:06:00,
2013-05-06 00:08:00,51.8,49.7,30.06,WNW,300,5.0,7.6,92,0.00,,OVC017,0.00,VWS V14.01,2013-05-06 05:08:00,
2013-05-06 00:10:00,51.8,49.7,30.06,WNW,292,2.8,8.7,92,0.00,,BKN028,0.00,VWS V14.01,2013-05-06 05:10:00,
2013-05-06 00:12:00,51.8,49.7,30.06,WNW,287,2.8,4.7,92,0.00,,OVC017,0.00,VWS V14.01,2013-05-06 05:12:00,
2013-05-06 00:14:00,51.6,49.5,30.06,West,272,3.9,7.0,92,0.00,,BKN028,0.00,VWS V14.01,2013-05-06 05:14:00,
2013-05-06 00:16:00,51.6,49.5,30.06,West,274,4.4,7.0,92,0.00,,BKN028,0.00,VWS V14.01,2013-05-06 05:16:00,
2013-05-06 00:18:00,51.6,49.5,30.06,West,280,6.7,7.0,92,0.00,,OVC017,0.00,VWS V14.01,2013-05-06 05:18:00,
2013-05-06 00:20:00,51.6,49.5,30.06,WNW,294,5.0,7.6,92,0.00,,BKN028,0.00,VWS V14.01,2013-05-06 05:20:00,
2013-05-06 00:22:00,51.6,49.5,30.06,NW,309,3.3,7.6,92,0.00,,BKN028,0.00,VWS V14.01,2013-05-06 05:22:00,
2013-05-06 00:23:00,51.6,49.5,30.06,NNW,348,3.9,5.8,92,0.00,,OVC070,0.00,VWS V14.01,2013-05-06 05:23:00,
2013-05-06 00:24:00,51.4,49.3,30.06,North,353,4.4,5.8,92,0.00,,BKN028,0.00,VWS V14.01,2013-05-06 05:24:00,
2013-05-06 00:26:00,51.4,49.3,30.06,SW,235,0.0,4.7,92,0.00,,BKN028,0.00,VWS V14.01,2013-05-06 05:26:00,
2013-05-06 00:28:00,51.4,49.3,30.06,West,273,0.0,5.2,92,0.00,,OVC070,0.00,VWS V14.01,2013-05-06 05:28:00,
2013-05-06 00:30:00,51.4,49.3,30.06,NW,324,4.4,6.4,92,0.00,,BKN028,0.00,VWS V14.01,2013-05-06 05:30:00,
2013-05-06 00:32:00,51.4,49.7,30.06,NE,38,0.0,4.7,94,0.00,,BKN028,0.00,VWS V14.01,2013-05-06 05:32:00,
2013-05-06 00:33:00,51.4,49.7,30.06,NNE,16,0.0,2.9,94,0.00,,OVC070,0.00,VWS V14.01,2013-05-06 05:33:00,
2013-05-06 00:34:00,51.4,49.7,30.06,NNW,342,0.0,0.0,94,0.00,,BKN028,0.00,VWS V14.01,2013-05-06 05:34:00,
2013-05-06 00:36:00,51.4,49.7,30.06,North,353,5.0,8.7,94,0.00,,BKN028,0.00,VWS V14.01,2013-05-06 05:36:00,
2013-05-06 00:38:00,51.4,49.7,30.06,NW,304,6.7,8.1,94,0.00,,OVC070,0.00,VWS V14.01,2013-05-06 05:38:00,
2013-05-06 00:40:00,51.4,49.7,30.06,NNE,15,3.9,8.1,94,0.00,,BKN028,0.00,VWS V14.01,2013-05-06 05:40:00,
2013-05-06 00:42:00,51.4,49.7,30.06,WNW,292,3.3,6.4,94,0.00,,BKN028,0.00,VWS V14.01,2013-05-06 05:42:00,
2013-05-06 00:43:00,51.4,49.7,30.06,North,0,3.3,6.4,94,0.00,,OVC070,0.00,VWS V14.01,2013-05-06 05:43:00,
2013-05-06 00:44:00,51.4,49.7,30.06,NNW,337,5.0,7.6,94,0.00,,BKN028,0.00,VWS V14.01,2013-05-06 05:44:00,
2013-05-06 00:46:00,51.4,49.7,30.06,NNW,345,5.0,10.8,94,0.00,,BKN028,0.00,VWS V14.01,2013-05-06 05:46:00,
2013-05-06 00:48:00,51.4,49.7,30.06,North,349,10.0,10.5,94,0.00,,OVC070,0.00,VWS V14.01,2013-05-06 05:48:00,
2013-05-06 00:50:00,51.4,49.7,30.06,NW,324,3.3,10.5,94,0.00,,BKN028,0.00,VWS V14.01,2013-05-06 05:50:00,
2013-05-06 00:52:00,51.4,49.7,30.06,NW,314,2.8,9.9,94,0.00,,BKN028,0.00,VWS V14.01,2013-05-06 05:52:00,
2013-05-06 00:53:00,51.4,49.7,30.06,North,357,6.1,9.9,94,0.00,,OVC070,0.00,VWS V14.01,2013-05-06 05:53:00,
2013-05-06 00:54:00,51.4,49.7,30.06,North,0,5.0,11.3,94,0.00,,BKN028,0.00,VWS V14.01,2013-05-06 05:54:00,
2013-05-06 00:56:00,51.4,49.7,30.06,WNW,285,7.2,7.6,94,0.00,,BKN028,0.00,VWS V14.01,2013-05-06 05:56:00,
2013-05-06 00:58:00,51.4,49.7,30.06,WNW,296,3.3,8.1,94,0.00,,OVC013,0.00,VWS V14.01,2013-05-06 05:58:00,
2013-05-06 01:00:00,51.4,49.7,30.06,North,353,11.9,12.5,94,0.00,,BKN028,0.00,VWS V14.01,2013-05-06 06:00:00,
2013-05-06 01:02:00,51.3,49.5,30.06,North,5,3.3,12.5,94,0.00,,BKN028,0.00,VWS V14.01,2013-05-06 06:02:00,
2013-05-06 01:03:00,51.3,49.5,30.06,WNW,288,6.7,11.3,94,0.00,,OVC013,0.00,VWS V14.01,2013-05-06 06:03:00,
2013-05-06 01:04:00,51.3,49.5,30.06,NNW,344,6.7,9.9,94,0.00,,BKN028,0.00,VWS V14.01,2013-05-06 06:04:00,
2013-05-06 01:06:00,51.3,49.5,30.06,NNW,337,0.0,7.6,94,0.00,,BKN028,0.00,VWS V14.01,2013-05-06 06:06:00,
2013-05-06 01:08:00,51.3,49.9,30.06,NW,309,6.1,8.1,95,0.00,,OVC013,0.00,VWS V14.01,2013-05-06 06:08:00,
2013-05-06 01:10:00,51.1,49.7,30.06,South,189,2.8,8.1,95,0.00,,BKN028,0.00,VWS V14.01,2013-05-06 06:10:00,
2013-05-06 01:12:00,51.1,49.7,30.06,NNE,16,7.2,7.6,95,0.00,,BKN028,0.00,VWS V14.01,2013-05-06 06:12:00,
2013-05-06 01:13:00,51.1,49.7,30.06,North,349,6.1,9.9,95,0.00,,OVC013,0.00,VWS V14.01,2013-05-06 06:13:00,
2013-05-06 01:14:00,51.1,49.7,30.06,North,353,7.2,9.9,95,0.00,,BKN028,0.00,VWS V14.01,2013-05-06 06:14:00,
2013-05-06 01:16:00,51.1,49.7,30.06,North,357,6.1,7.6,95,0.00,,BKN028,0.00,VWS V14.01,2013-05-06 06:16:00,
2013-05-06 01:18:00,51.1,49.7,30.06,North,357,9.4,9.9,95,0.00,,OVC013,0.00,VWS V14.01,2013-05-06 06:18:00,
2013-05-06 01:20:00,51.1,49.7,30.06,NNW,345,4.4,14.2,95,0.00,,BKN028,0.00,VWS V14.01,2013-05-06 06:20:00,
2013-05-06 01:22:00,51.1,49.7,30.06,WNW,293,7.8,8.1,95,0.00,,BKN028,0.00,VWS V14.01,2013-05-06 06:22:00,
2013-05-06 01:23:00,51.1,49.7,30.06,WNW,286,3.9,9.3,95,0.00,,OVC013,0.00,VWS V14.01,2013-05-06 06:23:00,
2013-05-06 01:24:00,51.1,49.7,30.06,WNW,289,7.8,10.5,95,0.00,,BKN028,0.00,VWS V14.01,2013-05-06 06:24:00,
2013-05-06 01:26:00,50.9,49.5,30.03,WNW,293,2.8,11.3,95,0.00,,BKN028,0.00,VWS V14.01,2013-05-06 06:26:00,
2013-05-06 01:28:00,50.9,49.5,30.03,NNW,331,7.8,9.9,95,0.00,,OVC013,0.00,VWS V14.01,2013-05-06 06:28:00,
2013-05-06 01:30:00,50.9,49.5,30.03,NNW,343,2.8,8.1,95,0.00,,BKN028,0.00,VWS V14.01,2013-05-06 06:30:00,
2013-05-06 01:32:00,50.9,49.5,30.03,West,281,0.0,3.5,95,0.00,,BKN028,0.00,VWS V14.01,2013-05-06 06:32:00,
2013-05-06 01:33:00,50.9,49.5,30.03,West,277,3.3,7.6,95,0.00,,OVC013,0.00,VWS V14.01,2013-05-06 06:33:00,
2013-05-06 01:34:00,50.7,49.3,30.03,North,11,5.0,7.6,95,0.00,,BKN028,0.00,VWS V14.01,2013-05-06 06:34:00,
2013-05-06 01:36:00,50.7,49.3,30.03,WNW,298,7.2,9.9,95,0.00,,BKN028,0.00,VWS V14.01,2013-05-06 06:36:00,
2013-05-06 01:38:00,50.7,49.3,30.03,NW,307,5.5,10.8,95,0.00,,OVC011,0.00,VWS V14.01,2013-05-06 06:38:00,
2013-05-06 01:40:00,50.7,49.7,30.03,NNW,346,3.9,5.8,96,0.00,,BKN028,0.00,VWS V14.01,2013-05-06 06:40:00,
2013-05-06 01:42:00,50.7,49.7,30.03,NW,317,5.0,7.0,96,0.00,,BKN028,0.00,VWS V14.01,2013-05-06 06:42:00,
2013-05-06 01:43:00,50.7,49.7,30.03,WNW,295,6.7,7.6,96,0.00,,OVC011,0.00,VWS V14.01,2013-05-06 06:43:00,
2013-05-06 01:44:00,50.7,49.7,30.03,West,278,4.4,7.6,96,0.00,,BKN028,0.00,VWS V14.01,2013-05-06 06:44:00,
2013-05-06 01:46:00,50.7,49.7,30.03,WNW,299,4.4,7.6,96,0.00,,BKN028,0.00,VWS V14.01,2013-05-06 06:46:00,
2013-05-06 01:48:00,50.5,49.5,30.03,NW,316,6.7,7.0,96,0.00,,BKN028,0.00,VWS V14.01,2013-05-06 06:48:00,
2013-05-06 01:49:00,50.5,49.5,30.03,WSW,241,0.0,7.0,96,0.00,,OVC011,0.00,VWS V14.01,2013-05-06 06:49:00,
2013-05-06 01:50:00,50.5,49.5,30.03,North,353,4.4,7.0,96,0.00,,BKN028,0.00,VWS V14.01,2013-05-06 06:50:00,
2013-05-06 01:52:00,50.5,49.5,30.03,WNW,293,6.7,9.9,96,0.00,,BKN028,0.00,VWS V14.01,2013-05-06 06:52:00,
2013-05-06 01:54:00,50.5,49.5,30.03,North,8,0.0,7.0,96,0.00,,OVC011,0.00,VWS V14.01,2013-05-06 06:54:00,
2013-05-06 01:56:00,50.4,49.4,30.03,NW,325,0.0,4.1,96,0.00,,BKN028,0.00,VWS V14.01,2013-05-06 06:56:00,
2013-05-06 01:58:00,50.4,49.4,30.03,NW,313,7.2,7.6,96,0.00,,BKN028,0.00,VWS V14.01,2013-05-06 06:58:00,
2013-05-06 01:59:00,50.4,49.4,30.03,NNW,341,2.8,8.1,96,0.00,,OVC011,0.00,VWS V14.01,2013-05-06 06:59:00,
2013-05-06 02:00:00,50.4,49.4,30.03,West,274,6.7,8.1,96,0.00,,BKN028,0.00,VWS V14.01,2013-05-06 07:00:00,
2013-05-06 02:02:00,50.2,49.2,30.03,WSW,243,3.9,10.5,96,0.00,,BKN028,0.00,VWS V14.01,2013-05-06 07:02:00,
2013-05-06 02:04:00,50.2,49.2,30.03,NNW,348,3.3,8.1,96,0.00,,OVC011,0.00,VWS V14.01,2013-05-06 07:04:00,
2013-05-06 02:06:00,50.2,49.2,30.03,WNW,299,3.9,4.7,96,0.00,,BKN028,0.00,VWS V14.01,2013-05-06 07:06:00,
2013-05-06 02:08:00,50.2,49.2,30.03,NNW,342,6.7,8.1,96,0.00,,BKN028,0.00,VWS V14.01,2013-05-06 07:08:00,
2013-05-06 02:09:00,50.2,49.2,30.03,NNW,330,6.7,7.6,96,0.00,,OVC011,0.00,VWS V14.01,2013-05-06 07:09:00,
2013-05-06 02:10:00,50.2,49.2,30.03,North,357,6.1,7.0,96,0.00,,BKN028,0.00,VWS V14.01,2013-05-06 07:10:00,
2013-05-06 02:12:00,50.2,49.2,30.03,North,357,4.4,8.1,96,0.00,,BKN028,0.00,VWS V14.01,2013-05-06 07:12:00,
2013-05-06 02:14:00,50.2,49.2,30.03,West,277,2.8,6.4,96,0.00,,OVC011,0.00,VWS V14.01,2013-05-06 07:14:00,
2013-05-06 02:16:00,50.2,49.2,30.03,NNW,328,6.7,7.6,96,0.00,,BKN028,0.00,VWS V14.01,2013-05-06 07:16:00,
2013-05-06 02:18:00,50.2,49.5,30.03,WNW,286,0.0,7.6,98,0.00,,BKN028,0.00,VWS V14.01,2013-05-06 07:18:00,
2013-05-06 02:19:00,50.2,49.5,30.03,WNW,287,0.0,4.7,98,0.00,,OVC011,0.00,VWS V14.01,2013-05-06 07:19:00,
2013-05-06 02:20:00,50.2,49.5,30.03,NNW,332,4.4,7.6,98,0.00,,BKN028,0.00,VWS V14.01,2013-05-06 07:20:00,
2013-05-06 02:22:00,50.2,49.5,30.03,NNW,331,4.4,10.5,98,0.00,,BKN028,0.00,VWS V14.01,2013-05-06 07:22:00,
2013-05-06 02:24:00,50.2,49.5,30.03,NNW,335,3.3,6.4,98,0.00,,OVC011,0.00,VWS V14.01,2013-05-06 07:24:00,
2013-05-06 02:26:00,50.2,49.5,30.03,North,5,7.8,8.1,98,0.00,,BKN028,0.00,VWS V14.01,2013-05-06 07:26:00,
2013-05-06 02:28:00,50.2,49.5,30.03,ESE,114,3.9,10.5,98,0.00,,BKN028,0.00,VWS V14.01,2013-05-06 07:28:00,
2013-05-06 02:29:00,50.2,49.5,30.03,NNW,342,0.0,10.5,98,0.00,,OVC011,0.00,VWS V14.01,2013-05-06 07:29:00,
2013-05-06 02:30:00,50.2,49.5,30.03,North,1,3.9,8.1,98,0.00,,BKN028,0.00,VWS V14.01,2013-05-06 07:30:00,
2013-05-06 02:32:00,50.2,49.5,30.03,North,0,10.3,10.8,98,0.00,,BKN028,0.00,VWS V14.01,2013-05-06 07:32:00,
2013-05-06 02:34:00,50.2,49.5,30.03,North,357,7.8,10.8,98,0.00,,OVC011,0.00,VWS V14.01,2013-05-06 07:34:00,
2013-05-06 02:36:00,50.2,49.5,30.03,NNW,338,7.2,10.8,98,0.00,,BKN028,0.00,VWS V14.01,2013-05-06 07:36:00,
2013-05-06 02:38:00,50.2,49.5,30.03,North,357,3.3,9.9,98,0.00,,BKN028,0.00,VWS V14.01,2013-05-06 07:38:00,
2013-05-06 02:39:00,50.2,49.5,30.03,NNE,12,2.8,4.7,98,0.00,,OVC011,0.00,VWS V14.01,2013-05-06 07:39:00,
2013-05-06 02:40:00,50.2,49.5,30.03,NW,316,3.9,7.6,98,0.00,,BKN028,0.00,VWS V14.01,2013-05-06 07:40:00,
2013-05-06 02:42:00,50.2,49.5,30.03,WNW,303,7.2,10.5,98,0.00,,BKN028,0.00,VWS V14.01,2013-05-06 07:42:00,
2013-05-06 02:44:00,50.2,49.5,30.03,NNW,348,7.2,9.9,98,0.00,,OVC011,0.00,VWS V14.01,2013-05-06 07:44:00,
2013-05-06 02:46:00,50.2,49.5,30.03,WNW,303,7.8,9.9,98,0.00,,BKN028,0.00,VWS V14.01,2013-05-06 07:46:00,
2013-05-06 02:48:00,50.2,49.5,30.03,NNE,22,3.9,10.5,98,0.00,,BKN028,0.00,VWS V14.01,2013-05-06 07:48:00,
2013-05-06 02:49:00,50.2,49.5,30.03,WNW,290,2.8,8.1,98,0.00,,OVC011,0.00,VWS V14.01,2013-05-06 07:49:00,
2013-05-06 02:50:00,50.2,49.5,30.03,WSW,253,2.8,6.4,98,0.00,,BKN028,0.00,VWS V14.01,2013-05-06 07:50:00,
2013-05-06 02:52:00,50.2,49.5,30.03,West,270,0.0,8.1,98,0.00,,BKN028,0.00,VWS V14.01,2013-05-06 07:52:00,
2013-05-06 02:54:00,50.2,49.5,30.03,NNE,31,3.3,4.1,98,0.00,,OVC011,0.00,VWS V14.01,2013-05-06 07:54:00,
2013-05-06 02:56:00,50.2,49.5,30.03,NE,41,7.8,8.1,98,0.00,,BKN028,0.00,VWS V14.01,2013-05-06 07:56:00,
2013-05-06 02:58:00,50.2,49.5,30.03,NNW,348,6.7,8.1,98,0.00,,BKN028,0.00,VWS V14.01,2013-05-06 07:58:00,
2013-05-06 02:59:00,50.2,49.5,30.03,North,357,3.3,7.6,98,0.00,,OVC011,0.00,VWS V14.01,2013-05-06 07:59:00,
2013-05-06 03:00:00,50.2,49.5,30.03,NE,34,6.7,7.6,98,0.00,,BKN028,0.00,VWS V14.01,2013-05-06 08:00:00,
2013-05-06 03:02:00,50.2,49.5,30.03,NNW,337,3.9,7.6,98,0.00,,BKN028,0.00,VWS V14.01,2013-05-06 08:02:00,
2013-05-06 03:04:00,50.2,49.5,30.03,West,261,7.2,10.5,98,0.00,,OVC011,0.00,VWS V14.01,2013-05-06 08:04:00,
2013-05-06 03:06:00,50.2,49.5,30.03,NNE,13,3.9,10.5,98,0.00,,BKN028,0.00,VWS V14.01,2013-05-06 08:06:00,
2013-05-06 03:08:00,50.2,49.9,30.03,NW,321,0.0,5.8,99,0.00,,BKN028,0.00,VWS V14.01,2013-05-06 08:08:00,
2013-05-06 03:09:00,50.2,49.9,30.03,NNE,17,5.0,5.2,99,0.00,,OVC011,0.00,VWS V14.01,2013-05-06 08:09:00,
2013-05-06 03:10:00,50.2,49.9,30.03,ENE,77,0.0,5.2,99,0.00,,BKN028,0.00,VWS V14.01,2013-05-06 08:10:00,
2013-05-06 03:12:00,50.2,49.9,30.03,NNE,21,3.9,8.1,99,0.00,,BKN028,0.00,VWS V14.01,2013-05-06 08:12:00,
2013-05-06 03:14:00,50.0,49.7,30.03,North,353,3.3,8.1,99,0.00,,OVC011,0.00,VWS V14.01,2013-05-06 08:14:00,
2013-05-06 03:16:00,50.0,49.7,30.03,NNE,23,5.0,8.1,99,0.00,,BKN028,0.00,VWS V14.01,2013-05-06 08:16:00,
2013-05-06 03:18:00,50.0,49.7,30.03,NNW,348,2.8,8.1,99,0.00,,BKN028,0.00,VWS V14.01,2013-05-06 08:18:00,
2013-05-06 03:19:00,50.0,49.7,30.03,NW,313,0.0,7.6,99,0.00,,OVC011,0.00,VWS V14.01,2013-05-06 08:19:00,
2013-05-06 03:20:00,50.0,49.7,30.03,North,353,5.0,7.6,99,0.00,,BKN028,0.00,VWS V14.01,2013-05-06 08:20:00,
2013-05-06 03:22:00,50.0,49.7,30.03,NNW,328,3.9,5.2,99,0.00,,BKN028,0.00,VWS V14.01,2013-05-06 08:22:00,
2013-05-06 03:24:00,50.0,49.7,30.03,NNW,343,0.0,6.4,99,0.00,,OVC011,0.00,VWS V14.01,2013-05-06 08:24:00,
2013-05-06 03:26:00,50.0,49.7,30.03,North,10,3.3,8.1,99,0.00,,BKN028,0.00,VWS V14.01,2013-05-06 08:26:00,
2013-05-06 03:28:00,50.0,49.7,30.03,NW,325,4.4,8.1,99,0.00,,BKN028,0.00,VWS V14.01,2013-05-06 08:28:00,
2013-05-06 03:29:00,50.0,49.7,30.03,WNW,285,0.0,7.6,99,0.00,,OVC011,0.00,VWS V14.01,2013-05-06 08:29:00,
2013-05-06 03:30:00,50.0,49.7,30.03,North,3,6.7,7.6,99,0.00,,BKN028,0.00,VWS V14.01,2013-05-06 08:30:00,
2013-05-06 03:32:00,50.0,49.7,30.03,North,357,6.7,9.9,99,0.00,,BKN028,0.00,VWS V14.01,2013-05-06 08:32:00,
2013-05-06 03:34:00,50.0,49.7,30.03,WNW,288,0.0,7.6,99,0.00,,OVC011,0.00,VWS V14.01,2013-05-06 08:34:00,
2013-05-06 03:36:00,50.0,49.7,30.03,North,357,5.0,7.6,99,0.00,,BKN028,0.00,VWS V14.01,2013-05-06 08:36:00,
2013-05-06 03:38:00,50.0,49.7,30.03,WNW,283,0.0,5.2,99,0.00,,BKN028,0.00,VWS V14.01,2013-05-06 08:38:00,
2013-05-06 03:39:00,50.0,49.7,30.03,NNE,28,6.7,10.5,99,0.00,,OVC009,0.00,VWS V14.01,2013-05-06 08:39:00,
2013-05-06 03:40:00,50.0,49.7,30.03,NE,40,5.0,10.5,99,0.00,,BKN028,0.00,VWS V14.01,2013-05-06 08:40:00,
2013-05-06 03:42:00,50.0,49.7,30.03,North,1,3.3,7.6,99,0.00,,BKN028,0.00,VWS V14.01,2013-05-06 08:42:00,
2013-05-06 03:44:00,50.0,49.7,30.03,NNW,332,6.7,7.6,99,0.00,,OVC009,0.00,VWS V14.01,2013-05-06 08:44:00,
2013-05-06 03:46:00,50.0,49.7,30.03,WNW,300,2.8,7.6,99,0.00,,BKN028,0.00,VWS V14.01,2013-05-06 08:46:00,
2013-05-06 03:48:00,49.8,49.5,30.03,North,2,2.8,4.7,99,0.00,,BKN028,0.00,VWS V14.01,2013-05-06 08:48:00,
2013-05-06 03:49:00,49.8,49.5,30.03,WSW,257,0.0,4.7,99,0.00,,OVC009,0.00,VWS V14.01,2013-05-06 08:49:00,
2013-05-06 03:50:00,49.8,49.5,30.03,North,0,5.0,5.2,99,0.00,,BKN028,0.00,VWS V14.01,2013-05-06 08:50:00,
2013-05-06 03:52:00,49.8,49.5,30.03,NNW,342,5.0,6.4,99,0.00,,BKN028,0.00,VWS V14.01,2013-05-06 08:52:00,
2013-05-06 03:54:00,49.8,49.5,30.03,NE,44,7.2,7.6,99,0.00,,OVC009,0.00,VWS V14.01,2013-05-06 08:54:00,
2013-05-06 03:56:00,49.8,49.5,30.03,NNE,14,3.9,8.1,99,0.00,,BKN028,0.00,VWS V14.01,2013-05-06 08:56:00,
2013-05-06 03:58:00,49.8,49.8,30.03,North,353,0.0,4.1,100,0.00,,BKN028,0.00,VWS V14.01,2013-05-06 08:58:00,
2013-05-06 03:59:00,49.8,49.8,30.03,NW,323,2.8,4.7,100,0.00,,OVC009,0.00,VWS V14.01,2013-05-06 08:59:00,
2013-05-06 04:00:00,49.8,49.8,30.03,West,265,5.0,5.2,100,0.00,,BKN028,0.00,VWS V14.01,2013-05-06 09:00:00,
2013-05-06 04:02:00,49.8,49.8,30.03,NNW,337,0.0,5.2,100,0.00,,BKN028,0.00,VWS V14.01,2013-05-06 09:02:00,
2013-05-06 04:04:00,49.8,49.8,30.03,NNW,328,3.9,4.7,100,0.00,,BKN028,0.00,VWS V14.01,2013-05-06 09:04:00,
2013-05-06 04:05:00,49.8,49.8,30.03,North,0,0.0,4.7,100,0.00,,OVC009,0.00,VWS V14.01,2013-05-06 09:05:00,
2013-05-06 04:06:00,49.8,49.8,30.03,NNW,337,6.7,7.0,100,0.00,,BKN028,0.00,VWS V14.01,2013-05-06 09:06:00,
2013-05-06 04:08:00,49.8,49.8,30.03,NE,36,0.0,7.0,100,0.00,,BKN028,0.00,VWS V14.01,2013-05-06 09:08:00,
2013-05-06 04:10:00,49.8,49.8,30.03,North,0,5.0,6.4,100,0.00,,OVC009,0.00,VWS V14.01,2013-05-06 09:10:00,
2013-05-06 04:12:00,49.8,49.8,30.03,NE,38,0.0,6.4,100,0.00,,BKN028,0.00,VWS V14.01,2013-05-06 09:12:00,
2013-05-06 04:14:00,49.8,49.8,30.03,North,0,3.9,10.5,100,0.00,,BKN028,0.00,VWS V14.01,2013-05-06 09:14:00,
2013-05-06 04:15:00,49.8,49.8,30.03,NNE,22,0.0,10.5,100,0.00,,OVC009,0.00,VWS V14.01,2013-05-06 09:15:00,
2013-05-06 04:16:00,49.8,49.8,30.03,North,1,6.7,7.0,100,0.00,,BKN028,0.00,VWS V14.01,2013-05-06 09:16:00,
2013-05-06 04:18:00,49.8,49.8,30.03,NNE,16,3.3,8.1,100,0.00,,BKN028,0.00,VWS V14.01,2013-05-06 09:18:00,
2013-05-06 04:20:00,49.8,49.8,30.03,North,353,7.8,8.1,100,0.00,,OVC009,0.00,VWS V14.01,2013-05-06 09:20:00,
2013-05-06 04:22:00,49.8,49.8,30.03,NNE,19,3.9,8.1,100,0.00,,BKN028,0.00,VWS V14.01,2013-05-06 09:22:00,
2013-05-06 04:24:00,49.8,49.8,30.03,NNW,343,2.8,6.4,100,0.00,,BKN028,0.00,VWS V14.01,2013-05-06 09:24:00,
2013-05-06 04:25:00,49.8,49.8,30.03,NNW,329,5.0,7.0,100,0.00,,OVC009,0.00,VWS V14.01,2013-05-06 09:25:00,
2013-05-06 04:26:00,49.8,49.8,30.03,North,8,0.0,7.0,100,0.00,,BKN028,0.00,VWS V14.01,2013-05-06 09:26:00,
2013-05-06 04:28:00,49.8,49.8,30.03,North,7,2.8,8.1,100,0.00,,BKN028,0.00,VWS V14.01,2013-05-06 09:28:00,
2013-05-06 04:30:00,49.8,49.8,30.03,NE,45,6.7,9.9,100,0.00,,OVC009,0.00,VWS V14.01,2013-05-06 09:30:00,
2013-05-06 04:32:00,49.8,49.8,30.03,North,5,7.8,8.1,100,0.00,,BKN028,0.00,VWS V14.01,2013-05-06 09:32:00,
2013-05-06 04:34:00,49.6,49.6,30.03,SW,233,0.0,8.1,100,0.00,,BKN028,0.00,VWS V14.01,2013-05-06 09:34:00,
2013-05-06 04:35:00,49.6,49.6,30.03,NNE,19,7.2,7.6,100,0.00,,OVC009,0.00,VWS V14.01,2013-05-06 09:35:00,
2013-05-06 04:36:00,49.6,49.6,30.03,East,97,5.0,7.6,100,0.00,,BKN028,0.00,VWS V14.01,2013-05-06 09:36:00,
2013-05-06 04:38:00,49.6,49.6,30.03,NNE,19,3.9,5.2,100,0.00,,BKN028,0.00,VWS V14.01,2013-05-06 09:38:00,
2013-05-06 04:40:00,49.6,49.6,30.03,North,357,7.2,7.6,100,0.00,,OVC007,0.00,VWS V14.01,2013-05-06 09:40:00,
2013-05-06 04:42:00,49.6,49.6,30.03,NNW,346,3.3,11.3,100,0.00,,BKN028,0.00,VWS V14.01,2013-05-06 09:42:00,
2013-05-06 04:44:00,49.6,49.6,30.03,NNE,13,5.0,6.4,100,0.00,,BKN028,0.00,VWS V14.01,2013-05-06 09:44:00,
2013-05-06 04:45:00,49.6,49.6,30.03,NE,37,0.0,7.0,100,0.00,,OVC007,0.00,VWS V14.01,2013-05-06 09:45:00,
2013-05-06 04:46:00,49.6,49.6,30.03,NNW,329,0.0,7.0,100,0.00,,BKN028,0.00,VWS V14.01,2013-05-06 09:46:00,
2013-05-06 04:48:00,49.6,49.6,30.03,North,353,4.4,7.0,100,0.00,,BKN028,0.00,VWS V14.01,2013-05-06 09:48:00,
2013-05-06 04:50:00,49.6,49.6,30.03,NNE,30,6.7,8.1,100,0.00,,OVC007,0.00,VWS V14.01,2013-05-06 09:50:00,
2013-05-06 04:52:00,49.6,49.6,30.03,WNW,295,0.0,7.0,100,0.00,,BKN028,0.00,VWS V14.01,2013-05-06 09:52:00,
2013-05-06 04:54:00,49.6,49.6,30.03,NNE,13,4.4,6.4,100,0.00,,BKN028,0.00,VWS V14.01,2013-05-06 09:54:00,
2013-05-06 04:55:00,49.6,49.6,30.03,NNE,32,3.9,8.1,100,0.00,,OVC007,0.00,VWS V14.01,2013-05-06 09:55:00,
2013-05-06 04:56:00,49.6,49.6,30.03,NNE,18,3.9,8.1,100,0.00,,BKN028,0.00,VWS V14.01,2013-05-06 09:56:00,
2013-05-06 04:58:00,49.6,49.6,30.03,NE,44,3.9,7.0,100,0.00,,BKN028,0.00,VWS V14.01,2013-05-06 09:58:00,
2013-05-06 05:00:00,49.6,49.6,30.03,NNE,29,7.2,7.6,100,0.00,,OVC007,0.00,VWS V14.01,2013-05-06 10:00:00,
2013-05-06 05:02:00,49.6,49.6,30.03,North,5,4.4,10.8,100,0.00,,BKN028,0.00,VWS V14.01,2013-05-06 10:02:00,
2013-05-06 05:04:00,49.5,49.5,30.03,NNW,338,10.0,10.8,100,0.00,,BKN028,0.00,VWS V14.01,2013-05-06 10:04:00,
2013-05-06 05:05:00,49.5,49.5,30.03,NNE,29,7.8,10.8,100,0.00,,OVC007,0.00,VWS V14.01,2013-05-06 10:05:00,
2013-05-06 05:06:00,49.5,49.5,30.03,NNW,342,5.0,10.8,100,0.00,,BKN028,0.00,VWS V14.01,2013-05-06 10:06:00,
2013-05-06 05:08:00,49.5,49.5,30.03,NE,36,7.2,8.1,100,0.00,,BKN028,0.00,VWS V14.01,2013-05-06 10:08:00,
2013-05-06 05:10:00,49.5,49.5,30.03,North,353,5.0,7.0,100,0.00,,OVC007,0.00,VWS V14.01,2013-05-06 10:10:00,
2013-05-06 05:12:00,49.5,49.5,30.03,NNW,334,6.1,8.1,100,0.00,,BKN028,0.00,VWS V14.01,2013-05-06 10:12:00,
2013-05-06 05:14:00,49.5,49.5,30.03,NNE,33,3.9,7.6,100,0.00,,BKN028,0.00,VWS V14.01,2013-05-06 10:14:00,
2013-05-06 05:15:00,49.5,49.5,30.03,NE,36,7.2,7.6,100,0.00,,OVC007,0.00,VWS V14.01,2013-05-06 10:15:00,
2013-05-06 05:16:00,49.5,49.5,30.03,North,10,6.7,7.6,100,0.00,,BKN028,0.00,VWS V14.01,2013-05-06 10:16:00,
2013-05-06 05:18:00,49.5,49.5,30.03,North,2,3.3,7.6,100,0.00,,BKN028,0.00,VWS V14.01,2013-05-06 10:18:00,
2013-05-06 05:20:00,49.5,49.5,30.03,NNE,16,3.9,4.1,100,0.00,,OVC007,0.00,VWS V14.01,2013-05-06 10:20:00,
2013-05-06 05:22:00,49.5,49.5,30.03,NNE,29,3.9,7.6,100,0.00,,BKN028,0.00,VWS V14.01,2013-05-06 10:22:00,
2013-05-06 05:24:00,49.3,49.3,30.03,North,357,0.0,10.5,100,0.00,,BKN028,0.00,VWS V14.01,2013-05-06 10:24:00,
2013-05-06 05:25:00,49.3,49.3,30.03,NNE,21,3.3,5.2,100,0.00,,OVC007,0.00,VWS V14.01,2013-05-06 10:25:00,
2013-05-06 05:26:00,49.3,49.3,30.03,NNW,340,4.4,5.2,100,0.00,,BKN028,0.00,VWS V14.01,2013-05-06 10:26:00,
2013-05-06 05:28:00,49.3,49.3,30.03,North,1,0.0,8.1,100,0.00,,BKN028,0.00,VWS V14.01,2013-05-06 10:28:00,
2013-05-06 05:30:00,49.3,49.3,30.03,NW,304,0.0,7.6,100,0.00,,OVC007,0.00,VWS V14.01,2013-05-06 10:30:00,
2013-05-06 05:32:00,49.3,49.3,30.03,North,4,3.3,7.6,100,0.00,,BKN028,0.00,VWS V14.01,2013-05-06 10:32:00,
2013-05-06 05:34:00,49.3,49.3,30.03,NW,313,7.8,8.1,100,0.00,,BKN028,0.00,VWS V14.01,2013-05-06 10:34:00,
2013-05-06 05:35:00,49.3,49.3,30.03,West,273,0.0,8.1,100,0.00,,OVC007,0.00,VWS V14.01,2013-05-06 10:35:00,
2013-05-06 05:36:00,49.3,49.3,30.03,NNW,348,3.9,8.1,100,0.00,,BKN028,0.00,VWS V14.01,2013-05-06 10:36:00,
2013-05-06 05:38:00,49.3,49.3,30.03,NNE,18,6.7,10.8,100,0.00,,BKN028,0.00,VWS V14.01,2013-05-06 10:38:00,
2013-05-06 05:40:00,49.3,49.3,30.03,NW,319,2.8,4.7,100,0.00,,OVC006,0.00,VWS V14.01,2013-05-06 10:40:00,
2013-05-06 05:42:00,49.3,49.3,30.03,North,8,4.4,4.7,100,0.00,,BKN028,0.00,VWS V14.01,2013-05-06 10:42:00,
2013-05-06 05:44:00,49.3,49.3,30.03,NW,319,4.4,10.5,100,0.00,,BKN028,0.00,VWS V14.01,2013-05-06 10:44:00,
2013-05-06 05:45:00,49.1,49.1,30.03,NE,50,7.2,10.5,100,0.00,,OVC006,0.00,VWS V14.01,2013-05-06 10:45:00,
2013-05-06 05:46:00,49.1,49.1,30.03,NNE,13,4.4,7.6,100,0.00,,BKN028,0.00,VWS V14.01,2013-05-06 10:46:00,
2013-05-06 05:48:00,49.1,49.1,30.03,NNE,17,7.2,7.6,100,0.00,,BKN028,0.00,VWS V14.01,2013-05-06 10:48:00,
2013-05-06 05:50:00,49.1,49.1,30.03,North,353,4.4,8.1,100,0.00,,OVC006,0.00,VWS V14.01,2013-05-06 10:50:00,
2013-05-06 05:52:00,49.1,49.1,30.03,SSW,212,0.0,8.1,100,0.00,,BKN028,0.00,VWS V14.01,2013-05-06 10:52:00,
2013-05-06 05:54:00,49.1,49.1,30.03,North,357,0.0,3.5,100,0.00,,BKN028,0.00,VWS V14.01,2013-05-06 10:54:00,
2013-05-06 05:56:00,49.1,49.1,30.03,North,0,0.0,7.0,100,0.00,,OVC006,0.00,VWS V14.01,2013-05-06 10:56:00,
2013-05-06 05:58:00,49.1,49.1,30.03,West,281,3.9,5.2,100,0.00,,BKN028,0.00,VWS V14.01,2013-05-06 10:58:00,
2013-05-06 06:00:00,49.1,49.1,30.03,North,7,4.4,5.2,100,0.00,,BKN028,0.00,VWS V14.01,2013-05-06 11:00:00,
2013-05-06 06:01:00,49.1,49.1,30.03,NW,325,0.0,5.2,100,0.00,,OVC005,0.00,VWS V14.01,2013-05-06 11:01:00,
2013-05-06 06:02:00,49.1,49.1,30.03,NW,322,0.0,5.2,100,0.00,,BKN028,0.00,VWS V14.01,2013-05-06 11:02:00,
2013-05-06 06:04:00,49.1,49.1,30.03,NNW,332,3.3,7.6,100,0.00,,BKN028,0.00,VWS V14.01,2013-05-06 11:04:00,
2013-05-06 06:06:00,49.1,49.1,30.03,West,270,5.0,8.7,100,0.00,,OVC005,0.00,VWS V14.01,2013-05-06 11:06:00,
2013-05-06 06:08:00,48.9,48.9,30.03,WNW,301,3.9,8.1,100,0.00,,BKN028,0.00,VWS V14.01,2013-05-06 11:08:00,
2013-05-06 06:10:00,48.9,48.9,30.03,NE,34,5.0,6.4,100,0.00,,BKN028,0.00,VWS V14.01,2013-05-06 11:10:00,
2013-05-06 06:11:00,48.9,48.9,30.03,North,3,5.0,5.2,100,0.00,,OVC005,0.00,VWS V14.01,2013-05-06 11:11:00,
2013-05-06 06:12:00,48.9,48.9,30.03,WSW,257,6.7,7.0,100,0.00,,BKN028,0.00,VWS V14.01,2013-05-06 11:12:00,
2013-05-06 06:14:00,48.9,48.9,30.03,NE,39,5.0,7.0,100,0.00,,BKN028,0.00,VWS V14.01,2013-05-06 11:14:00,
2013-05-06 06:16:00,48.9,48.9,30.03,West,269,7.8,8.1,100,0.00,,OVC005,0.00,VWS V14.01,2013-05-06 11:16:00,
2013-05-06 06:18:00,48.9,48.9,30.03,North,0,2.8,8.1,100,0.00,,BKN028,0.00,VWS V14.01,2013-05-06 11:18:00,
2013-05-06 06:20:00,48.9,48.9,30.03,West,280,0.0,7.0,100,0.00,,BKN028,0.00,VWS V14.01,2013-05-06 11:20:00,
2013-05-06 06:21:00,48.9,48.9,30.03,West,277,7.8,8.1,100,0.00,,OVC005,0.00,VWS V14.01,2013-05-06 11:21:00,
2013-05-06 06:22:00,48.9,48.9,30.03,NNW,336,2.8,8.1,100,0.00,,BKN028,0.00,VWS V14.01,2013-05-06 11:22:00,
2013-05-06 06:24:00,48.9,48.9,30.03,NNW,331,4.4,6.4,100,0.00,,BKN028,0.00,VWS V14.01,2013-05-06 11:24:00,
2013-05-06 06:26:00,48.9,48.9,30.03,NNW,333,4.4,8.1,100,0.00,,OVC005,0.00,VWS V14.01,2013-05-06 11:26:00,
2013-05-06 06:28:00,48.9,48.9,30.03,NNE,23,0.0,7.6,100,0.00,,BKN028,0.00,VWS V14.01,2013-05-06 11:28:00,
2013-05-06 06:30:00,48.9,48.9,30.03,NE,54,3.9,9.9,100,0.00,,BKN028,0.00,VWS V14.01,2013-05-06 11:30:00,
2013-05-06 06:31:00,48.9,48.9,30.03,North,353,6.1,6.4,100,0.00,,OVC005,0.00,VWS V14.01,2013-05-06 11:31:00,
2013-05-06 06:32:00,48.9,48.9,30.03,NW,319,3.3,7.0,100,0.00,,BKN028,0.00,VWS V14.01,2013-05-06 11:32:00,
2013-05-06 06:34:00,48.9,48.9,30.03,NW,324,0.0,7.0,100,0.00,,BKN028,0.00,VWS V14.01,2013-05-06 11:34:00,
2013-05-06 06:36:00,48.9,48.9,30.03,North,4,2.8,4.7,100,0.00,,OVC005,0.00,VWS V14.01,2013-05-06 11:36:00,
2013-05-06 06:38:00,48.9,48.9,30.03,NNE,20,6.7,7.0,100,0.00,,BKN028,0.00,VWS V14.01,2013-05-06 11:38:00,
2013-05-06 06:40:00,48.9,48.9,30.03,NNE,12,6.1,7.6,100,0.00,,BKN028,0.00,VWS V14.01,2013-05-06 11:40:00,
2013-05-06 06:41:00,48.9,48.9,30.06,NNE,18,7.2,7.6,100,0.00,,OVC005,0.00,VWS V14.01,2013-05-06 11:41:00,
2013-05-06 06:42:00,48.9,48.9,30.06,North,357,0.0,7.6,100,0.00,,BKN028,0.00,VWS V14.01,2013-05-06 11:42:00,
2013-05-06 06:44:00,48.9,48.9,30.06,NNW,346,0.0,4.7,100,0.00,,BKN028,0.00,VWS V14.01,2013-05-06 11:44:00,
2013-05-06 06:46:00,48.9,48.9,30.06,North,7,0.0,3.5,100,0.00,,OVC005,0.00,VWS V14.01,2013-05-06 11:46:00,
2013-05-06 06:48:00,48.9,48.9,30.06,North,6,0.0,0.0,100,0.00,,BKN028,0.00,VWS V14.01,2013-05-06 11:48:00,
2013-05-06 06:50:00,48.9,48.9,30.06,NNW,336,0.0,5.8,100,0.00,,BKN028,0.00,VWS V14.01,2013-05-06 11:50:00,
2013-05-06 06:51:00,48.9,48.9,30.06,NNW,342,6.1,6.4,100,0.00,,OVC005,0.00,VWS V14.01,2013-05-06 11:51:00,
2013-05-06 06:52:00,48.9,48.9,30.06,NW,311,7.2,7.6,100,0.00,,BKN028,0.00,VWS V14.01,2013-05-06 11:52:00,
2013-05-06 06:54:00,48.9,48.9,30.06,North,0,3.9,7.6,100,0.00,,BKN028,0.00,VWS V14.01,2013-05-06 11:54:00,
2013-05-06 06:56:00,48.9,48.9,30.06,North,8,0.0,6.4,100,0.00,,OVC005,0.00,VWS V14.01,2013-05-06 11:56:00,
2013-05-06 06:58:00,48.9,48.9,30.06,North,6,3.9,4.7,100,0.00,,BKN028,0.00,VWS V14.01,2013-05-06 11:58:00,
2013-05-06 07:00:00,48.9,48.9,30.06,North,357,0.0,4.7,100,0.00,,BKN028,0.00,VWS V14.01,2013-05-06 12:00:00,
2013-05-06 07:01:00,48.9,48.9,30.06,NNE,22,0.0,4.7,100,0.00,,OVC004,0.00,VWS V14.01,2013-05-06 12:01:00,
2013-05-06 07:02:00,49.1,49.1,30.06,NNE,21,5.0,5.2,100,0.00,,BKN028,0.00,VWS V14.01,2013-05-06 12:02:00,
2013-05-06 07:04:00,49.1,49.1,30.06,NNE,27,4.4,10.5,100,0.00,,BKN028,0.00,VWS V14.01,2013-05-06 12:04:00,
2013-05-06 07:06:00,49.1,49.1,30.06,NNE,18,4.4,10.8,100,0.00,,OVC004,0.00,VWS V14.01,2013-05-06 12:06:00,
2013-05-06 07:08:00,49.1,49.1,30.06,North,353,5.0,8.1,100,0.00,,BKN028,0.00,VWS V14.01,2013-05-06 12:08:00,
2013-05-06 07:10:00,49.1,49.1,30.06,NNW,327,2.8,7.0,100,0.00,,BKN028,0.00,VWS V14.01,2013-05-06 12:10:00,
2013-05-06 07:11:00,49.1,49.1,30.06,West,278,0.0,4.1,100,0.00,,OVC004,0.00,VWS V14.01,2013-05-06 12:11:00,
2013-05-06 07:12:00,49.1,49.1,30.06,NW,324,6.1,6.4,100,0.00,,BKN028,0.00,VWS V14.01,2013-05-06 12:12:00,
2013-05-06 07:14:00,49.1,49.1,30.06,NNE,22,4.4,7.6,100,0.00,,BKN028,0.00,VWS V14.01,2013-05-06 12:14:00,
2013-05-06 07:16:00,49.1,49.1,30.06,NNW,338,5.0,7.6,100,0.00,,OVC004,0.00,VWS V14.01,2013-05-06 12:16:00,
2013-05-06 07:18:00,49.1,49.1,30.06,NNW,338,9.4,9.9,100,0.00,,BKN028,0.00,VWS V14.01,2013-05-06 12:18:00,
2013-05-06 07:20:00,49.1,49.1,30.06,NNE,12,6.7,10.5,100,0.00,,BKN028,0.00,VWS V14.01,2013-05-06 12:20:00,
2013-05-06 07:21:00,49.1,49.1,30.06,NNE,32,4.4,9.9,100,0.00,,OVC004,0.00,VWS V14.01,2013-05-06 12:21:00,
2013-05-06 07:22:00,49.1,49.1,30.06,NE,36,6.7,7.0,100,0.00,,BKN028,0.00,VWS V14.01,2013-05-06 12:22:00,
2013-05-06 07:24:00,49.1,49.1,30.06,NE,41,5.0,7.6,100,0.00,,BKN028,0.00,VWS V14.01,2013-05-06 12:24:00,
2013-05-06 07:26:00,49.1,49.1,30.06,NW,318,2.8,4.7,100,0.00,,OVC004,0.00,VWS V14.01,2013-05-06 12:26:00,
2013-05-06 07:28:00,49.1,49.1,30.06,North,5,6.1,6.4,100,0.00,,BKN028,0.00,VWS V14.01,2013-05-06 12:28:00,
2013-05-06 07:30:00,49.1,49.1,30.06,NW,319,0.0,6.4,100,0.00,,BKN028,0.00,VWS V14.01,2013-05-06 12:30:00,
2013-05-06 07:31:00,49.1,49.1,30.06,NNE,21,6.7,9.9,100,0.00,,OVC004,0.00,VWS V14.01,2013-05-06 12:31:00,
2013-05-06 07:32:00,49.1,49.1,30.06,North,6,4.4,9.9,100,0.00,,BKN028,0.00,VWS V14.01,2013-05-06 12:32:00,
2013-05-06 07:34:00,49.1,49.1,30.06,NNW,331,4.4,8.7,100,0.00,,BKN028,0.00,VWS V14.01,2013-05-06 12:34:00,
2013-05-06 07:36:00,49.3,49.3,30.06,NNE,29,7.2,7.6,100,0.00,,OVC004,0.00,VWS V14.01,2013-05-06 12:36:00,
2013-05-06 07:38:00,49.3,49.3,30.06,NNW,335,3.3,7.6,100,0.00,,BKN028,0.00,VWS V14.01,2013-05-06 12:38:00,
2013-05-06 07:40:00,49.3,49.3,30.06,North,353,0.0,7.0,100,0.00,,BKN028,0.00,VWS V14.01,2013-05-06 12:40:00,
2013-05-06 07:41:00,49.3,49.3,30.06,North,357,6.7,7.0,100,0.00,,OVC003,0.00,VWS V14.01,2013-05-06 12:41:00,
2013-05-06 07:42:00,49.3,49.3,30.06,NNE,12,5.0,7.0,100,0.00,,BKN028,0.00,VWS V14.01,2013-05-06 12:42:00,
2013-05-06 07:44:00,49.3,49.3,30.06,WNW,283,0.0,8.1,100,0.00,,BKN028,0.00,VWS V14.01,2013-05-06 12:44:00,
2013-05-06 07:46:00,49.3,49.3,30.06,North,353,0.0,7.6,100,0.00,,OVC003,0.00,VWS V14.01,2013-05-06 12:46:00,
2013-05-06 07:48:00,49.3,49.3,30.06,North,0,0.0,0.0,100,0.00,,BKN028,0.00,VWS V14.01,2013-05-06 12:48:00,
2013-05-06 07:50:00,49.3,49.3,30.06,North,11,3.3,9.3,100,0.00,,BKN028,0.00,VWS V14.01,2013-05-06 12:50:00,
2013-05-06 07:51:00,49.3,49.3,30.06,West,270,3.9,7.0,100,0.00,,OVC003,0.00,VWS V14.01,2013-05-06 12:51:00,
2013-05-06 07:52:00,49.3,49.3,30.06,WNW,286,0.0,7.0,100,0.00,,BKN028,0.00,VWS V14.01,2013-05-06 12:52:00,
2013-05-06 07:54:00,49.3,49.3,30.06,North,350,7.2,7.6,100,0.00,,BKN028,0.00,VWS V14.01,2013-05-06 12:54:00,
2013-05-06 07:56:00,49.3,49.3,30.06,West,279,0.0,9.9,100,0.00,,BKN028,0.00,VWS V14.01,2013-05-06 12:56:00,
2013-05-06 07:57:00,49.3,49.3,30.06,North,353,0.0,5.2,100,0.00,,OVC003,0.00,VWS V14.01,2013-05-06 12:57:00,
2013-05-06 07:58:00,49.3,49.3,30.06,NE,46,0.0,2.9,100,0.00,,BKN028,0.00,VWS V14.01,2013-05-06 12:58:00,
2013-05-06 08:00:00,49.3,49.3,30.06,North,357,6.7,8.1,100,0.00,,BKN028,0.00,VWS V14.01,2013-05-06 13:00:00,
2013-05-06 08:02:00,49.5,49.5,30.06,North,6,5.0,8.1,100,0.00,,OVC003,0.00,VWS V14.01,2013-05-06 13:02:00,
2013-05-06 08:04:00,49.5,49.5,30.06,NNE,13,10.0,10.5,100,0.00,,BKN028,0.00,VWS V14.01,2013-05-06 13:04:00,
2013-05-06 08:06:00,49.5,49.5,30.06,North,7,4.4,10.5,100,0.00,,BKN028,0.00,VWS V14.01,2013-05-06 13:06:00,
2013-05-06 08:07:00,49.5,49.5,30.06,North,5,4.4,8.1,100,0.00,,OVC003,0.00,VWS V14.01,2013-05-06 13:07:00,
2013-05-06 08:08:00,49.5,49.5,30.06,NNE,29,5.0,8.1,100,0.00,,BKN028,0.00,VWS V14.01,2013-05-06 13:08:00,
2013-05-06 08:10:00,49.5,49.5,30.06,North,353,3.3,7.0,100,0.00,,BKN028,0.00,VWS V14.01,2013-05-06 13:10:00,
2013-05-06 08:12:00,49.5,49.5,30.06,NNW,348,2.8,4.7,100,0.00,,OVC003,0.00,VWS V14.01,2013-05-06 13:12:00,
2013-05-06 08:14:00,49.5,49.5,30.06,NNE,20,2.8,8.1,100,0.00,,BKN028,0.00,VWS V14.01,2013-05-06 13:14:00,
2013-05-06 08:16:00,49.5,49.5,30.06,North,357,3.9,4.1,100,0.00,,BKN028,0.00,VWS V14.01,2013-05-06 13:16:00,
2013-05-06 08:17:00,49.5,49.5,30.06,NNE,18,7.2,7.6,100,0.00,,OVC003,0.00,VWS V14.01,2013-05-06 13:17:00,
2013-05-06 08:18:00,49.5,49.5,30.06,NE,53,6.1,8.1,100,0.00,,BKN028,0.00,VWS V14.01,2013-05-06 13:18:00,
2013-05-06 08:20:00,49.5,49.5,30.06,NNE,16,5.0,8.1,100,0.00,,BKN028,0.00,VWS V14.01,2013-05-06 13:20:00,
2013-05-06 08:22:00,49.5,49.5,30.06,NNE,23,4.4,6.4,100,0.00,,OVC003,0.00,VWS V14.01,2013-05-06 13:22:00,
2013-05-06 08:24:00,49.5,49.5,30.06,North,4,0.0,4.7,100,0.00,,BKN028,0.00,VWS V14.01,2013-05-06 13:24:00,
2013-05-06 08:26:00,49.5,49.5,30.06,NE,43,5.0,5.2,100,0.00,,BKN028,0.00,VWS V14.01,2013-05-06 13:26:00,
2013-05-06 08:27:00,49.5,49.5,30.06,NW,309,3.3,5.2,100,0.00,,OVC003,0.00,VWS V14.01,2013-05-06 13:27:00,
2013-05-06 08:28:00,49.5,49.5,30.06,NNW,345,4.4,5.8,100,0.00,,BKN028,0.00,VWS V14.01,2013-05-06 13:28:00,
2013-05-06 08:30:00,49.6,49.6,30.06,NE,39,4.4,4.7,100,0.00,,BKN028,0.00,VWS V14.01,2013-05-06 13:30:00,
2013-05-06 08:32:00,49.6,49.6,30.06,North,10,3.3,8.1,100,0.00,,OVC003,0.00,VWS V14.01,2013-05-06 13:32:00,
2013-05-06 08:34:00,49.6,49.6,30.06,NNW,327,2.8,7.6,100,0.00,,BKN028,0.00,VWS V14.01,2013-05-06 13:34:00,
2013-05-06 08:36:00,49.6,49.6,30.06,WSW,241,0.0,5.2,100,0.00,,BKN028,0.00,VWS V14.01,2013-05-06 13:36:00,
2013-05-06 08:37:00,49.8,49.8,30.06,North,357,3.3,4.1,100,0.00,,OVC003,0.00,VWS V14.01,2013-05-06 13:37:00,
2013-05-06 08:38:00,49.8,49.8,30.06,West,264,5.0,5.2,100,0.00,,BKN028,0.00,VWS V14.01,2013-05-06 13:38:00,
2013-05-06 08:40:00,49.8,49.8,30.06,NNE,21,2.8,5.2,100,0.00,,BKN028,0.00,VWS V14.01,2013-05-06 13:40:00,
2013-05-06 08:42:00,49.8,49.8,30.06,NNE,15,3.9,8.1,100,0.00,,OVC004,0.00,VWS V14.01,2013-05-06 13:42:00,
2013-05-06 08:44:00,49.8,49.8,30.06,NNW,337,4.4,8.1,100,0.00,,BKN028,0.00,VWS V14.01,2013-05-06 13:44:00,
2013-05-06 08:46:00,49.8,49.8,30.06,NNW,335,3.3,4.7,100,0.00,,BKN028,0.00,VWS V14.01,2013-05-06 13:46:00,
2013-05-06 08:47:00,49.8,49.8,30.06,NNW,336,0.0,4.1,100,0.00,,OVC004,0.00,VWS V14.01,2013-05-06 13:47:00,
2013-05-06 08:48:00,49.8,49.8,30.06,NNW,334,0.0,4.1,100,0.00,,BKN028,0.00,VWS V14.01,2013-05-06 13:48:00,
2013-05-06 08:50:00,50.0,50.0,30.06,WNW,298,2.8,4.1,100,0.00,,BKN028,0.00,VWS V14.01,2013-05-06 13:50:00,
2013-05-06 08:52:00,50.0,50.0,30.06,NNE,23,3.3,5.2,100,0.00,,OVC004,0.00,VWS V14.01,2013-05-06 13:52:00,
2013-05-06 08:54:00,50.2,50.2,30.06,North,357,0.0,6.4,100,0.00,,BKN028,0.00,VWS V14.01,2013-05-06 13:54:00,
2013-05-06 08:56:00,50.2,50.2,30.09,WSW,239,0.0,5.2,100,0.00,,BKN028,0.00,VWS V14.01,2013-05-06 13:56:00,
2013-05-06 08:57:00,50.2,50.2,30.09,WNW,298,3.3,4.7,100,0.00,,OVC004,0.00,VWS V14.01,2013-05-06 13:57:00,
2013-05-06 08:58:00,50.2,50.2,30.09,WNW,298,0.0,4.7,100,0.00,,BKN028,0.00,VWS V14.01,2013-05-06 13:58:00,
2013-05-06 09:00:00,50.4,50.4,30.09,NNW,327,3.9,6.4,100,0.00,,BKN028,0.00,VWS V14.01,2013-05-06 14:00:00,
2013-05-06 09:02:00,50.4,50.4,30.09,WNW,296,2.8,5.2,100,0.00,,OVC003,0.00,VWS V14.01,2013-05-06 14:02:00,
2013-05-06 09:04:00,50.4,50.4,30.09,North,357,0.0,5.2,100,0.00,,BKN028,0.00,VWS V14.01,2013-05-06 14:04:00,
2013-05-06 09:06:00,50.4,50.4,30.09,NW,326,0.0,0.0,100,0.00,,BKN028,0.00,VWS V14.01,2013-05-06 14:06:00,
2013-05-06 09:07:00,50.4,50.4,30.09,NNE,33,4.4,5.8,100,0.00,,OVC003,0.00,VWS V14.01,2013-05-06 14:07:00,
2013-05-06 09:08:00,50.4,50.4,30.09,North,5,6.7,7.0,100,0.00,,BKN028,0.00,VWS V14.01,2013-05-06 14:08:00,
2013-05-06 09:10:00,50.4,50.4,30.09,North,8,4.4,7.0,100,0.00,,BKN028,0.00,VWS V14.01,2013-05-06 14:10:00,
2013-05-06 09:12:00,50.4,50.4,30.09,NNE,18,5.0,5.2,100,0.00,,OVC003,0.00,VWS V14.01,2013-05-06 14:12:00,
2013-05-06 09:14:00,50.5,50.5,30.09,NW,318,3.9,7.0,100,0.00,,BKN028,0.00,VWS V14.01,2013-05-06 14:14:00,
2013-05-06 09:16:00,50.5,50.5,30.09,NNE,15,0.0,6.4,100,0.00,,BKN028,0.00,VWS V14.01,2013-05-06 14:16:00,
2013-05-06 09:17:00,50.5,50.5,30.09,NNE,13,4.4,4.7,100,0.00,,OVC003,0.00,VWS V14.01,2013-05-06 14:17:00,
2013-05-06 09:18:00,50.5,50.5,30.09,North,11,2.8,4.7,100,0.00,,BKN028,0.00,VWS V14.01,2013-05-06 14:18:00,
2013-05-06 09:20:00,50.7,50.7,30.09,NE,45,0.0,3.5,100,0.00,,BKN028,0.00,VWS V14.01,2013-05-06 14:20:00,
2013-05-06 09:22:00,50.7,50.7,30.09,NNE,27,6.7,7.0,100,0.00,,OVC003,0.00,VWS V14.01,2013-05-06 14:22:00,
2013-05-06 09:24:00,50.9,50.9,30.09,WNW,290,0.0,7.0,100,0.00,,BKN028,0.00,VWS V14.01,2013-05-06 14:24:00,
2013-05-06 09:26:00,50.9,50.9,30.09,NE,46,5.0,7.0,100,0.00,,BKN028,0.00,VWS V14.01,2013-05-06 14:26:00,
2013-05-06 09:27:00,50.9,50.9,30.09,NNE,30,0.0,7.0,100,0.00,,OVC003,0.00,VWS V14.01,2013-05-06 14:27:00,
2013-05-06 09:28:00,50.9,50.9,30.09,North,3,0.0,7.0,100,0.00,,BKN028,0.00,VWS V14.01,2013-05-06 14:28:00,
2013-05-06 09:30:00,50.9,50.9,30.09,North,6,7.2,7.6,100,0.00,,BKN028,0.00,VWS V14.01,2013-05-06 14:30:00,
2013-05-06 09:32:00,51.1,51.1,30.09,North,357,0.0,5.2,100,0.00,,OVC003,0.00,VWS V14.01,2013-05-06 14:32:00,
2013-05-06 09:34:00,51.1,51.1,30.09,NNW,329,0.0,3.5,100,0.00,,BKN028,0.00,VWS V14.01,2013-05-06 14:34:00,
2013-05-06 09:36:00,51.1,51.1,30.09,North,8,4.4,6.4,100,0.00,,BKN028,0.00,VWS V14.01,2013-05-06 14:36:00,
2013-05-06 09:37:00,51.1,51.1,30.09,NNE,33,7.2,10.8,100,0.00,,OVC003,0.00,VWS V14.01,2013-05-06 14:37:00,
2013-05-06 09:38:00,51.1,51.1,30.09,NE,38,6.1,10.8,100,0.00,,BKN028,0.00,VWS V14.01,2013-05-06 14:38:00,
2013-05-06 09:40:00,51.1,51.1,30.09,NE,39,8.3,8.7,100,0.00,,BKN028,0.00,VWS V14.01,2013-05-06 14:40:00,
2013-05-06 09:42:00,51.3,51.3,30.09,NNE,23,6.7,13.1,100,0.00,,OVC005,0.00,VWS V14.01,2013-05-06 14:42:00,
2013-05-06 09:44:00,51.3,51.3,30.09,NE,37,3.3,13.1,100,0.00,,BKN028,0.00,VWS V14.01,2013-05-06 14:44:00,
2013-05-06 09:46:00,51.3,51.3,30.09,NNE,23,2.8,5.2,100,0.00,,BKN028,0.00,VWS V14.01,2013-05-06 14:46:00,
2013-05-06 09:47:00,51.4,51.4,30.09,NNW,343,4.4,6.4,100,0.00,,OVC005,0.00,VWS V14.01,2013-05-06 14:47:00,
2013-05-06 09:48:00,51.4,51.4,30.09,ENE,57,7.8,8.1,100,0.00,,BKN028,0.00,VWS V14.01,2013-05-06 14:48:00,
2013-05-06 09:50:00,51.4,51.4,30.09,NNE,14,7.2,11.3,100,0.00,,BKN028,0.00,VWS V14.01,2013-05-06 14:50:00,
2013-05-06 09:52:00,51.4,51.4,30.09,NE,35,7.2,8.1,100,0.00,,BKN028,0.00,VWS V14.01,2013-05-06 14:52:00,
2013-05-06 09:53:00,51.6,51.6,30.09,NE,56,3.9,8.1,100,0.00,,OVC005,0.00,VWS V14.01,2013-05-06 14:53:00,
2013-05-06 09:54:00,51.6,51.6,30.09,NE,36,6.7,8.1,100,0.00,,BKN028,0.00,VWS V14.01,2013-05-06 14:54:00,
2013-05-06 09:56:00,51.8,51.8,30.09,North,0,2.8,8.1,100,0.00,,BKN028,0.00,VWS V14.01,2013-05-06 14:56:00,
2013-05-06 09:58:00,51.8,51.8,30.09,NNW,333,0.0,6.4,100,0.00,,OVC005,0.00,VWS V14.01,2013-05-06 14:58:00,
2013-05-06 10:00:00,51.8,51.8,30.09,NNW,339,0.0,4.7,100,0.00,,BKN028,0.00,VWS V14.01,2013-05-06 15:00:00,
2013-05-06 10:02:00,51.8,51.8,30.09,North,1,4.4,11.3,100,0.00,,BKN028,0.00,VWS V14.01,2013-05-06 15:02:00,
2013-05-06 10:03:00,52.0,52.0,30.09,NNW,343,3.9,11.3,100,0.00,,OVC005,0.00,VWS V14.01,2013-05-06 15:03:00,
2013-05-06 10:04:00,52.0,52.0,30.09,NNW,338,3.9,8.1,100,0.00,,BKN028,0.00,VWS V14.01,2013-05-06 15:04:00,
2013-05-06 10:06:00,52.0,52.0,30.09,West,281,3.3,4.7,100,0.00,,BKN028,0.00,VWS V14.01,2013-05-06 15:06:00,
2013-05-06 10:08:00,52.0,52.0,30.09,North,353,7.8,8.1,100,0.00,,OVC005,0.00,VWS V14.01,2013-05-06 15:08:00,
2013-05-06 10:10:00,52.0,52.0,30.09,NNE,20,5.0,10.5,100,0.00,,BKN028,0.00,VWS V14.01,2013-05-06 15:10:00,
2013-05-06 10:12:00,52.2,52.2,30.09,NNE,27,4.4,6.4,100,0.00,,BKN028,0.00,VWS V14.01,2013-05-06 15:12:00,
2013-05-06 10:13:00,52.2,52.2,30.09,North,353,4.4,11.3,100,0.00,,OVC005,0.00,VWS V14.01,2013-05-06 15:13:00,
2013-05-06 10:14:00,52.2,52.2,30.09,NNE,14,3.9,11.3,100,0.00,,BKN028,0.00,VWS V14.01,2013-05-06 15:14:00,
2013-05-06 10:16:00,52.2,52.2,30.09,NNE,24,3.9,7.6,100,0.00,,BKN028,0.00,VWS V14.01,2013-05-06 15:16:00,
2013-05-06 10:18:00,52.2,52.2,30.09,NNE,30,7.8,10.8,100,0.00,,OVC005,0.00,VWS V14.01,2013-05-06 15:18:00,
2013-05-06 10:20:00,52.3,52.3,30.09,NNE,17,3.3,10.5,100,0.00,,BKN028,0.00,VWS V14.01,2013-05-06 15:20:00,
2013-05-06 10:22:00,52.3,52.3,30.09,WNW,291,4.4,6.4,100,0.00,,BKN028,0.00,VWS V14.01,2013-05-06 15:22:00,
2013-05-06 10:23:00,52.3,52.3,30.09,WNW,291,0.0,6.4,100,0.00,,OVC005,0.00,VWS V14.01,2013-05-06 15:23:00,
2013-05-06 10:24:00,52.5,52.5,30.09,WNW,294,7.2,7.6,100,0.00,,BKN028,0.00,VWS V14.01,2013-05-06 15:24:00,
2013-05-06 10:26:00,52.5,52.5,30.09,NNE,33,7.2,8.1,100,0.00,,BKN028,0.00,VWS V14.01,2013-05-06 15:26:00,
2013-05-06 10:28:00,52.5,52.5,30.09,West,275,4.4,7.0,100,0.00,,OVC005,0.00,VWS V14.01,2013-05-06 15:28:00,
2013-05-06 10:30:00,52.5,52.5,30.09,West,274,10.3,10.8,100,0.00,,BKN028,0.00,VWS V14.01,2013-05-06 15:30:00,
2013-05-06 10:32:00,52.5,52.5,30.09,NNE,21,3.9,10.8,100,0.00,,BKN028,0.00,VWS V14.01,2013-05-06 15:32:00,
2013-05-06 10:33:00,52.5,52.5,30.09,NNE,15,0.0,6.4,100,0.00,,OVC005,0.00,VWS V14.01,2013-05-06 15:33:00,
2013-05-06 10:34:00,52.5,52.5,30.09,NNE,32,5.0,5.2,100,0.00,,BKN028,0.00,VWS V14.01,2013-05-06 15:34:00,
2013-05-06 10:36:00,52.7,52.7,30.09,NNW,327,3.3,8.7,100,0.00,,BKN028,0.00,VWS V14.01,2013-05-06 15:36:00,
2013-05-06 10:38:00,52.7,52.7,30.09,NNE,20,0.0,4.1,100,0.00,,OVC005,0.00,VWS V14.01,2013-05-06 15:38:00,
2013-05-06 10:40:00,52.9,52.9,30.09,NNW,343,0.0,4.1,100,0.00,,BKN028,0.00,VWS V14.01,2013-05-06 15:40:00,
2013-05-06 10:42:00,52.9,52.9,30.09,WNW,288,3.3,4.7,100,0.00,,BKN028,0.00,VWS V14.01,2013-05-06 15:42:00,
2013-05-06 10:43:00,53.1,53.1,30.09,NW,325,3.9,7.0,100,0.00,,OVC006,0.00,VWS V14.01,2013-05-06 15:43:00,
2013-05-06 10:44:00,53.1,53.1,30.09,North,7,5.0,7.0,100,0.00,,BKN028,0.00,VWS V14.01,2013-05-06 15:44:00,
2013-05-06 10:46:00,53.1,53.1,30.09,WNW,302,3.3,8.1,100,0.00,,BKN028,0.00,VWS V14.01,2013-05-06 15:46:00,
2013-05-06 10:48:00,53.1,53.1,30.09,WNW,296,3.9,7.0,100,0.00,,OVC006,0.00,VWS V14.01,2013-05-06 15:48:00,
2013-05-06 10:50:00,53.1,53.1,30.09,North,8,3.9,7.6,100,0.00,,BKN028,0.00,VWS V14.01,2013-05-06 15:50:00,
2013-05-06 10:52:00,53.1,53.1,30.09,East,96,0.0,8.1,100,0.00,,BKN028,0.00,VWS V14.01,2013-05-06 15:52:00,
2013-05-06 10:53:00,53.2,53.2,30.09,WNW,284,0.0,5.2,100,0.00,,OVC006,0.00,VWS V14.01,2013-05-06 15:53:00,
2013-05-06 10:54:00,53.2,53.2,30.09,North,9,3.9,4.1,100,0.00,,BKN028,0.00,VWS V14.01,2013-05-06 15:54:00,
2013-05-06 10:56:00,53.4,53.4,30.09,NNE,12,7.8,10.5,100,0.00,,BKN028,0.00,VWS V14.01,2013-05-06 15:56:00,
2013-05-06 10:58:00,53.6,53.6,30.09,WSW,243,2.8,8.1,100,0.00,,OVC006,0.00,VWS V14.01,2013-05-06 15:58:00,
2013-05-06 11:00:00,53.6,53.6,30.09,NNE,18,3.9,6.4,100,0.00,,BKN028,0.00,VWS V14.01,2013-05-06 16:00:00,
2013-05-06 11:02:00,53.6,53.6,30.09,WNW,302,2.8,7.6,100,0.00,,BKN028,0.00,VWS V14.01,2013-05-06 16:02:00,
2013-05-06 11:03:00,53.6,53.6,30.09,NW,315,3.3,7.6,100,0.00,,OVC006,0.00,VWS V14.01,2013-05-06 16:03:00,
2013-05-06 11:04:00,53.6,53.6,30.09,WNW,283,4.4,7.6,100,0.00,,BKN028,0.00,VWS V14.01,2013-05-06 16:04:00,
2013-05-06 11:06:00,53.6,53.6,30.09,North,8,6.1,9.9,100,0.00,,BKN028,0.00,VWS V14.01,2013-05-06 16:06:00,
2013-05-06 11:08:00,53.6,53.6,30.09,NNE,16,0.0,7.6,100,0.00,,OVC006,0.00,VWS V14.01,2013-05-06 16:08:00,
2013-05-06 11:10:00,53.6,53.6,30.09,North,353,0.0,4.7,100,0.00,,BKN028,0.00,VWS V14.01,2013-05-06 16:10:00,
2013-05-06 11:12:00,53.6,53.6,30.09,NNE,15,6.7,10.8,100,0.00,,BKN028,0.00,VWS V14.01,2013-05-06 16:12:00,
2013-05-06 11:13:00,53.6,53.6,30.09,North,1,0.0,10.8,100,0.00,,OVC006,0.00,VWS V14.01,2013-05-06 16:13:00,
2013-05-06 11:14:00,53.6,53.6,30.09,North,7,2.8,8.1,100,0.00,,BKN028,0.00,VWS V14.01,2013-05-06 16:14:00,
2013-05-06 11:16:00,53.8,53.8,30.09,WNW,286,0.0,7.6,100,0.00,,BKN028,0.00,VWS V14.01,2013-05-06 16:16:00,
2013-05-06 11:18:00,54.0,54.0,30.09,NNW,331,3.9,7.0,100,0.00,,OVC008,0.00,VWS V14.01,2013-05-06 16:18:00,
2013-05-06 11:20:00,53.8,53.8,30.09,NNW,343,3.9,10.5,100,0.00,,BKN028,0.00,VWS V14.01,2013-05-06 16:20:00,
2013-05-06 11:22:00,53.8,53.8,30.09,North,350,0.0,6.4,100,0.00,,BKN028,0.00,VWS V14.01,2013-05-06 16:22:00,
2013-05-06 11:23:00,53.8,53.8,30.09,WNW,288,6.1,6.4,100,0.00,,OVC008,0.00,VWS V14.01,2013-05-06 16:23:00,
2013-05-06 11:24:00,53.8,53.8,30.09,WNW,303,3.3,6.4,100,0.00,,BKN028,0.00,VWS V14.01,2013-05-06 16:24:00,
2013-05-06 11:26:00,53.6,53.6,30.12,NW,315,0.0,8.1,100,0.00,,BKN028,0.00,VWS V14.01,2013-05-06 16:26:00,
2013-05-06 11:28:00,53.8,53.8,30.12,WNW,286,3.9,8.1,100,0.00,,OVC008,0.00,VWS V14.01,2013-05-06 16:28:00,
2013-05-06 11:30:00,53.6,53.6,30.12,WNW,284,6.7,10.8,100,0.00,,BKN028,0.00,VWS V14.01,2013-05-06 16:30:00,
2013-05-06 11:32:00,53.6,53.6,30.12,West,280,7.2,7.6,100,0.00,,BKN028,0.00,VWS V14.01,2013-05-06 16:32:00,
2013-05-06 11:33:00,53.6,53.6,30.12,NW,316,3.9,9.9,100,0.00,,OVC008,0.00,VWS V14.01,2013-05-06 16:33:00,
2013-05-06 11:34:00,53.6,53.6,30.12,NW,323,0.0,9.9,100,0.00,,BKN028,0.00,VWS V14.01,2013-05-06 16:34:00,
2013-05-06 11:36:00,53.6,53.6,30.12,North,357,4.4,6.4,100,0.00,,BKN028,0.00,VWS V14.01,2013-05-06 16:36:00,
2013-05-06 11:38:00,53.6,53.6,30.12,NNW,336,0.0,6.4,100,0.00,,OVC008,0.00,VWS V14.01,2013-05-06 16:38:00,
2013-05-06 11:40:00,53.6,53.6,30.12,North,357,7.2,7.6,100,0.00,,BKN028,0.00,VWS V14.01,2013-05-06 16:40:00,
2013-05-06 11:42:00,53.6,53.6,30.12,NW,307,0.0,8.1,100,0.00,,BKN028,0.00,VWS V14.01,2013-05-06 16:42:00,
2013-05-06 11:43:00,53.8,53.8,30.12,NNE,20,0.0,7.0,100,0.00,,OVC008,0.00,VWS V14.01,2013-05-06 16:43:00,
2013-05-06 11:44:00,53.8,53.8,30.12,NW,319,6.7,7.0,100,0.00,,BKN028,0.00,VWS V14.01,2013-05-06 16:44:00,
2013-05-06 11:46:00,53.8,53.8,30.12,WNW,282,3.9,7.0,100,0.00,,BKN028,0.00,VWS V14.01,2013-05-06 16:46:00,
2013-05-06 11:48:00,53.8,53.8,30.12,WNW,286,0.0,7.0,100,0.00,,OVC008,0.00,VWS V14.01,2013-05-06 16:48:00,
2013-05-06 11:50:00,53.8,53.8,30.12,WNW,296,2.8,7.6,100,0.00,,BKN028,0.00,VWS V14.01,2013-05-06 16:50:00,
2013-05-06 11:52:00,53.8,53.8,30.12,NW,307,6.7,7.0,100,0.00,,BKN028,0.00,VWS V14.01,2013-05-06 16:52:00,
2013-05-06 11:53:00,54.0,54.0,30.12,NE,42,0.0,7.6,100,0.00,,OVC008,0.00,VWS V14.01,2013-05-06 16:53:00,
2013-05-06 11:54:00,54.0,54.0,30.12,West,277,3.3,7.6,100,0.00,,BKN028,0.00,VWS V14.01,2013-05-06 16:54:00,
2013-05-06 11:56:00,54.0,54.0,30.09,NNW,340,0.0,8.1,100,0.00,,BKN028,0.00,VWS V14.01,2013-05-06 16:56:00,
2013-05-06 11:58:00,54.0,54.0,30.09,NW,320,7.2,7.6,100,0.00,,OVC008,0.00,VWS V14.01,2013-05-06 16:58:00,
2013-05-06 12:00:00,54.1,54.1,30.09,North,5,0.0,7.6,100,0.00,,CLR,0.00,VWS V14.01,2013-05-06 17:00:00,
2013-05-06 12:02:00,54.1,54.1,30.09,North,350,5.0,7.6,100,0.00,,CLR,0.00,VWS V14.01,2013-05-06 17:02:00,
2013-05-06 12:03:00,54.3,54.3,30.09,NW,317,0.0,7.6,100,0.00,,OVC008,0.00,VWS V14.01,2013-05-06 17:03:00,
2013-05-06 12:04:00,54.3,54.3,30.09,North,7,4.4,5.8,100,0.00,,BKN028,0.00,VWS V14.01,2013-05-06 17:04:00,
2013-05-06 12:06:00,54.3,54.3,30.09,NNW,341,10.8,11.3,100,0.00,,CLR,0.00,VWS V14.01,2013-05-06 17:06:00,
2013-05-06 12:08:00,54.5,54.5,30.09,NNE,27,9.4,10.5,100,0.00,,OVC008,0.00,VWS V14.01,2013-05-06 17:08:00,
2013-05-06 12:10:00,54.7,54.7,30.09,NNE,20,7.2,10.5,100,0.00,,BKN028,0.00,VWS V14.01,2013-05-06 17:10:00,
2013-05-06 12:12:00,54.9,54.9,30.09,North,5,0.0,8.1,100,0.00,,BKN028,0.00,VWS V14.01,2013-05-06 17:12:00,
2013-05-06 12:13:00,55.0,55.0,30.09,NNE,12,0.0,8.1,100,0.00,,OVC008,0.00,VWS V14.01,2013-05-06 17:13:00,
2013-05-06 12:14:00,55.0,55.0,30.09,North,353,0.0,8.1,100,0.00,,BKN028,0.00,VWS V14.01,2013-05-06 17:14:00,
2013-05-06 12:16:00,55.2,55.2,30.09,West,272,0.0,2.9,100,0.00,,BKN028,0.00,VWS V14.01,2013-05-06 17:16:00,
2013-05-06 12:18:00,55.4,55.4,30.09,NNW,345,3.3,6.4,100,0.00,,OVC008,0.00,VWS V14.01,2013-05-06 17:18:00,
2013-05-06 12:20:00,55.4,55.4,30.09,NW,314,2.8,7.0,100,0.00,,BKN028,0.00,VWS V14.01,2013-05-06 17:20:00,
2013-05-06 12:22:00,55.4,55.4,30.09,NNW,344,3.3,6.4,100,0.00,,BKN028,0.00,VWS V14.01,2013-05-06 17:22:00,
2013-05-06 12:23:00,55.4,55.4,30.09,WNW,298,0.0,5.2,100,0.00,,OVC008,0.00,VWS V14.01,2013-05-06 17:23:00,
2013-05-06 12:24:00,55.4,55.4,30.09,NW,315,0.0,5.2,100,0.00,,BKN028,0.00,VWS V14.01,2013-05-06 17:24:00,
2013-05-06 12:26:00,55.4,55.4,30.09,North,353,5.5,6.4,100,0.00,,BKN028,0.00,VWS V14.01,2013-05-06 17:26:00,
2013-05-06 12:28:00,55.4,55.4,30.09,North,4,0.0,6.4,100,0.00,,OVC008,0.00,VWS V14.01,2013-05-06 17:28:00,
2013-05-06 12:30:00,55.4,55.4,30.09,NW,304,0.0,3.5,100,0.00,,BKN028,0.00,VWS V14.01,2013-05-06 17:30:00,
2013-05-06 12:32:00,55.4,55.4,30.09,NNW,341,3.3,8.1,100,0.00,,BKN028,0.00,VWS V14.01,2013-05-06 17:32:00,
2013-05-06 12:33:00,55.4,55.4,30.09,North,3,3.9,8.1,100,0.00,,OVC008,0.00,VWS V14.01,2013-05-06 17:33:00,
2013-05-06 12:34:00,55.2,55.2,30.09,North,3,3.9,8.1,100,0.00,,BKN028,0.00,VWS V14.01,2013-05-06 17:34:00,
2013-05-06 12:36:00,55.4,55.4,30.09,NNE,18,6.7,7.0,100,0.00,,BKN028,0.00,VWS V14.01,2013-05-06 17:36:00,
2013-05-06 12:38:00,55.4,55.4,30.09,NNE,24,5.0,8.1,100,0.00,,OVC008,0.00,VWS V14.01,2013-05-06 17:38:00,
2013-05-06 12:40:00,55.6,55.6,30.09,North,353,4.4,8.1,100,0.00,,BKN028,0.00,VWS V14.01,2013-05-06 17:40:00,
2013-05-06 12:42:00,55.6,55.6,30.09,North,353,3.9,8.1,100,0.00,,BKN028,0.00,VWS V14.01,2013-05-06 17:42:00,
2013-05-06 12:43:00,55.8,55.8,30.09,NNE,26,6.7,7.0,100,0.00,,OVC008,0.00,VWS V14.01,2013-05-06 17:43:00,
2013-05-06 12:44:00,55.8,55.8,30.09,NE,38,6.7,7.0,100,0.00,,BKN028,0.00,VWS V14.01,2013-05-06 17:44:00,
2013-05-06 12:46:00,55.9,55.9,30.09,NW,319,8.9,9.3,100,0.00,,BKN028,0.00,VWS V14.01,2013-05-06 17:46:00,
2013-05-06 12:48:00,56.3,56.3,30.09,NNE,22,3.3,7.0,100,0.00,,OVC008,0.00,VWS V14.01,2013-05-06 17:48:00,
2013-05-06 12:50:00,56.3,56.3,30.09,NNE,24,3.9,7.0,100,0.00,,BKN028,0.00,VWS V14.01,2013-05-06 17:50:00,
2013-05-06 12:52:00,56.5,56.5,30.09,North,11,7.8,13.1,100,0.00,,BKN028,0.00,VWS V14.01,2013-05-06 17:52:00,
2013-05-06 12:54:00,56.7,56.7,30.09,NNE,28,6.7,8.1,100,0.00,,OVC008,0.00,VWS V14.01,2013-05-06 17:54:00,
2013-05-06 12:56:00,56.8,56.8,30.09,North,353,0.0,8.1,100,0.00,,BKN028,0.00,VWS V14.01,2013-05-06 17:56:00,
2013-05-06 12:58:00,57.0,57.0,30.09,North,2,9.4,9.9,100,0.00,,BKN028,0.00,VWS V14.01,2013-05-06 17:58:00,
2013-05-06 12:59:00,57.0,57.0,30.09,West,259,0.0,9.9,100,0.00,,OVC008,0.00,VWS V14.01,2013-05-06 17:59:00,
2013-05-06 13:00:00,57.0,57.0,30.09,NNW,335,5.0,9.3,100,0.00,,BKN028,0.00,VWS V14.01,2013-05-06 18:00:00,
2013-05-06 13:02:00,57.2,57.2,30.09,NNE,19,6.7,8.1,100,0.00,,BKN028,0.00,VWS V14.01,2013-05-06 18:02:00,
2013-05-06 13:04:00,57.4,57.4,30.09,NNE,28,7.2,9.9,100,0.00,,OVC012,0.00,VWS V14.01,2013-05-06 18:04:00,
2013-05-06 13:06:00,57.6,57.6,30.09,WNW,302,4.4,8.7,100,0.00,,BKN028,0.00,VWS V14.01,2013-05-06 18:06:00,
2013-05-06 13:08:00,57.7,57.7,30.09,WNW,296,2.8,7.0,100,0.00,,BKN028,0.00,VWS V14.01,2013-05-06 18:08:00,
2013-05-06 13:09:00,57.7,57.5,30.09,WSW,248,6.7,7.0,99,0.00,,OVC012,0.00,VWS V14.01,2013-05-06 18:09:00,
2013-05-06 13:10:00,57.7,57.5,30.09,West,280,4.4,10.5,99,0.00,,BKN028,0.00,VWS V14.01,2013-05-06 18:10:00,
2013-05-06 13:12:00,57.7,57.5,30.09,WNW,302,3.9,8.1,99,0.00,,BKN028,0.00,VWS V14.01,2013-05-06 18:12:00,
2013-05-06 13:14:00,57.7,57.1,30.09,NW,321,4.4,5.2,98,0.00,,OVC012,0.00,VWS V14.01,2013-05-06 18:14:00,
2013-05-06 13:16:00,57.7,57.1,30.09,NNW,328,5.0,10.8,98,0.00,,BKN028,0.00,VWS V14.01,2013-05-06 18:16:00,
2013-05-06 13:18:00,57.7,56.7,30.09,West,278,3.3,5.2,96,0.00,,BKN028,0.00,VWS V14.01,2013-05-06 18:18:00,
2013-05-06 13:19:00,57.7,56.7,30.09,NNE,26,3.3,5.2,96,0.00,,OVC012,0.00,VWS V14.01,2013-05-06 18:19:00,
2013-05-06 13:20:00,57.7,56.7,30.09,NNE,32,5.0,5.2,96,0.00,,BKN028,0.00,VWS V14.01,2013-05-06 18:20:00,
2013-05-06 13:22:00,57.9,56.9,30.09,NNE,18,0.0,7.0,96,0.00,,BKN028,0.00,VWS V14.01,2013-05-06 18:22:00,
2013-05-06 13:24:00,58.1,57.1,30.09,NNE,20,5.0,7.6,96,0.00,,OVC012,0.00,VWS V14.01,2013-05-06 18:24:00,
2013-05-06 13:26:00,58.3,57.2,30.09,West,280,3.9,7.0,96,0.00,,BKN028,0.00,VWS V14.01,2013-05-06 18:26:00,
2013-05-06 13:28:00,58.5,57.0,30.09,North,357,6.7,7.6,95,0.00,,BKN028,0.00,VWS V14.01,2013-05-06 18:28:00,
2013-05-06 13:29:00,58.5,57.0,30.09,ENE,78,0.0,7.0,95,0.00,,OVC012,0.00,VWS V14.01,2013-05-06 18:29:00,
2013-05-06 13:30:00,58.5,57.0,30.09,NE,43,10.3,10.8,95,0.00,,BKN028,0.00,VWS V14.01,2013-05-06 18:30:00,
2013-05-06 13:32:00,58.6,57.2,30.09,NNE,13,6.1,10.8,95,0.00,,BKN028,0.00,VWS V14.01,2013-05-06 18:32:00,
2013-05-06 13:34:00,58.8,57.4,30.09,NNE,27,5.0,8.1,95,0.00,,OVC012,0.00,VWS V14.01,2013-05-06 18:34:00,
2013-05-06 13:36:00,58.8,57.0,30.09,NNE,31,7.8,8.1,94,0.00,,BKN028,0.00,VWS V14.01,2013-05-06 18:36:00,
2013-05-06 13:38:00,59.0,57.2,30.09,NNE,27,6.7,8.1,94,0.00,,BKN028,0.00,VWS V14.01,2013-05-06 18:38:00,
2013-05-06 13:39:00,59.2,57.4,30.09,North,2,6.7,8.1,94,0.00,,OVC014,0.00,VWS V14.01,2013-05-06 18:39:00,
2013-05-06 13:40:00,59.2,57.0,30.09,NE,49,6.7,8.7,92,0.00,,BKN028,0.00,VWS V14.01,2013-05-06 18:40:00,
2013-05-06 13:42:00,59.4,56.8,30.09,NW,305,0.0,7.0,91,0.00,,BKN028,0.00,VWS V14.01,2013-05-06 18:42:00,
2013-05-06 13:44:00,59.4,56.4,30.09,West,274,8.3,8.7,90,0.00,,OVC014,0.00,VWS V14.01,2013-05-06 18:44:00,
2013-05-06 13:46:00,59.2,55.4,30.09,NNW,332,0.0,8.7,87,0.00,,BKN028,0.00,VWS V14.01,2013-05-06 18:46:00,
2013-05-06 13:48:00,58.8,55.4,30.09,WNW,291,10.0,10.5,88,0.00,,BKN028,0.00,VWS V14.01,2013-05-06 18:48:00,
2013-05-06 13:49:00,58.6,55.2,30.09,WNW,289,5.0,10.5,88,0.00,,OVC014,0.00,VWS V14.01,2013-05-06 18:49:00,
2013-05-06 13:50:00,58.6,54.8,30.09,WNW,289,0.0,10.5,87,0.00,,BKN028,0.00,VWS V14.01,2013-05-06 18:50:00,
2013-05-06 13:52:00,58.5,54.7,30.09,WNW,282,3.3,6.4,87,0.00,,BKN028,0.00,VWS V14.01,2013-05-06 18:52:00,
2013-05-06 13:54:00,58.5,55.1,30.09,WNW,287,3.3,4.7,88,0.00,,OVC014,0.00,VWS V14.01,2013-05-06 18:54:00,
2013-05-06 13:56:00,58.5,54.7,30.09,NNE,13,7.8,8.1,87,0.00,,BKN028,0.00,VWS V14.01,2013-05-06 18:56:00,
2013-05-06 13:58:00,58.5,54.7,30.09,North,6,2.8,8.1,87,0.00,,BKN028,0.00,VWS V14.01,2013-05-06 18:58:00,
2013-05-06 13:59:00,58.5,54.7,30.09,NNE,23,7.8,8.1,87,0.00,,OVC016,0.00,VWS V14.01,2013-05-06 18:59:00,
2013-05-06 14:00:00,58.5,54.7,30.09,West,265,5.0,8.1,87,0.00,,BKN028,0.00,VWS V14.01,2013-05-06 19:00:00,
2013-05-06 14:02:00,58.6,54.8,30.09,North,7,0.0,5.2,87,0.00,,BKN028,0.00,VWS V14.01,2013-05-06 19:02:00,
2013-05-06 14:04:00,58.8,54.6,30.09,West,276,0.0,7.6,86,0.00,,OVC016,0.00,VWS V14.01,2013-05-06 19:04:00,
2013-05-06 14:06:00,58.8,54.6,30.09,NE,51,3.9,6.4,86,0.00,,BKN028,0.00,VWS V14.01,2013-05-06 19:06:00,
2013-05-06 14:08:00,58.8,54.6,30.09,North,353,5.0,8.1,86,0.00,,BKN028,0.00,VWS V14.01,2013-05-06 19:08:00,
2013-05-06 14:09:00,59.0,54.3,30.09,NW,308,6.7,7.6,84,0.00,,OVC016,0.00,VWS V14.01,2013-05-06 19:09:00,
2013-05-06 14:10:00,59.2,54.5,30.09,North,357,3.3,7.6,84,0.00,,BKN028,0.00,VWS V14.01,2013-05-06 19:10:00,
2013-05-06 14:12:00,59.2,54.5,30.09,West,259,0.0,4.7,84,0.00,,BKN028,0.00,VWS V14.01,2013-05-06 19:12:00,
2013-05-06 14:14:00,59.4,54.7,30.09,WSW,257,3.3,5.8,84,0.00,,OVC016,0.00,VWS V14.01,2013-05-06 19:14:00,
2013-05-06 14:16:00,59.5,54.9,30.09,West,262,6.7,7.0,84,0.00,,BKN028,0.00,VWS V14.01,2013-05-06 19:16:00,
2013-05-06 14:18:00,59.9,55.2,30.09,NNE,25,4.4,8.1,84,0.00,,BKN028,0.00,VWS V14.01,2013-05-06 19:18:00,
2013-05-06 14:19:00,59.9,55.2,30.09,NW,304,5.0,8.1,84,0.00,,OVC018,0.00,VWS V14.01,2013-05-06 19:19:00,
2013-05-06 14:20:00,60.1,55.4,30.09,NNE,28,6.7,7.6,84,0.00,,BKN028,0.00,VWS V14.01,2013-05-06 19:20:00,
2013-05-06 14:22:00,60.1,55.4,30.09,WNW,290,7.8,8.1,84,0.00,,BKN028,0.00,VWS V14.01,2013-05-06 19:22:00,
2013-05-06 14:24:00,60.3,55.6,30.09,North,357,3.3,8.1,84,0.00,,OVC018,0.00,VWS V14.01,2013-05-06 19:24:00,
2013-05-06 14:26:00,60.3,55.6,30.09,North,0,5.0,6.4,84,0.00,,BKN028,0.00,VWS V14.01,2013-05-06 19:26:00,
2013-05-06 14:28:00,60.4,55.3,30.09,WSW,240,10.3,10.8,83,0.00,,BKN028,0.00,VWS V14.01,2013-05-06 19:28:00,
2013-05-06 14:29:00,60.4,55.3,30.09,North,357,5.5,10.8,83,0.00,,OVC018,0.00,VWS V14.01,2013-05-06 19:29:00,
2013-05-06 14:30:00,60.3,54.7,30.09,NNW,332,3.3,10.8,82,0.00,,BKN028,0.00,VWS V14.01,2013-05-06 19:30:00,
2013-05-06 14:32:00,60.1,54.1,30.09,WNW,292,3.9,7.0,81,0.00,,BKN028,0.00,VWS V14.01,2013-05-06 19:32:00,
2013-05-06 14:34:00,59.9,53.9,30.09,NE,48,2.8,4.7,81,0.00,,OVC018,0.00,VWS V14.01,2013-05-06 19:34:00,
2013-05-06 14:36:00,60.1,54.1,30.09,NNE,32,5.0,10.5,81,0.00,,BKN028,0.00,VWS V14.01,2013-05-06 19:36:00,
2013-05-06 14:38:00,60.1,54.1,30.09,North,357,6.7,7.0,81,0.00,,BKN028,0.00,VWS V14.01,2013-05-06 19:38:00,
2013-05-06 14:39:00,60.3,54.2,30.09,ENE,67,3.3,7.0,81,0.00,,OVC020,0.00,VWS V14.01,2013-05-06 19:39:00,
2013-05-06 14:40:00,60.3,54.2,30.09,ENE,62,0.0,7.0,81,0.00,,BKN028,0.00,VWS V14.01,2013-05-06 19:40:00,
2013-05-06 14:42:00,60.4,54.4,30.06,NNW,337,3.9,7.0,81,0.00,,BKN028,0.00,VWS V14.01,2013-05-06 19:42:00,
2013-05-06 14:44:00,60.6,54.6,30.06,NNE,23,6.1,9.3,81,0.00,,OVC020,0.00,VWS V14.01,2013-05-06 19:44:00,
2013-05-06 14:46:00,60.6,54.2,30.06,North,11,9.4,9.9,79,0.00,,BKN028,0.00,VWS V14.01,2013-05-06 19:46:00,
2013-05-06 14:48:00,60.8,53.9,30.06,North,357,5.0,9.9,78,0.00,,BKN028,0.00,VWS V14.01,2013-05-06 19:48:00,
2013-05-06 14:49:00,61.0,54.0,30.06,North,357,3.9,7.6,78,0.00,,OVC020,0.00,VWS V14.01,2013-05-06 19:49:00,
2013-05-06 14:50:00,61.2,54.2,30.06,NNE,14,4.4,8.1,78,0.00,,BKN028,0.00,VWS V14.01,2013-05-06 19:50:00,
2013-05-06 14:52:00,61.7,54.7,30.06,NNW,342,7.8,8.1,78,0.00,,BKN028,0.00,VWS V14.01,2013-05-06 19:52:00,
2013-05-06 14:54:00,61.7,54.3,30.06,ENE,78,5.0,9.9,77,0.00,,OVC020,0.00,VWS V14.01,2013-05-06 19:54:00,
2013-05-06 14:56:00,61.9,54.4,30.06,NNE,31,7.2,11.3,77,0.00,,BKN028,0.00,VWS V14.01,2013-05-06 19:56:00,
2013-05-06 14:58:00,61.9,54.0,30.06,NNW,344,4.4,11.3,75,0.00,,BKN028,0.00,VWS V14.01,2013-05-06 19:58:00,
2013-05-06 14:59:00,61.7,53.3,30.06,NW,322,6.1,8.1,74,0.00,,OVC020,0.00,VWS V14.01,2013-05-06 19:59:00,
2013-05-06 15:00:00,61.7,53.3,30.06,NNE,13,3.9,8.1,74,0.00,,BKN028,0.00,VWS V14.01,2013-05-06 20:00:00,
2013-05-06 15:02:00,61.7,53.3,30.06,NNW,348,4.4,7.0,74,0.00,,BKN028,0.00,VWS V14.01,2013-05-06 20:02:00,
2013-05-06 15:04:00,61.7,53.3,30.06,NNE,27,6.1,7.6,74,0.00,,OVC020,0.00,VWS V14.01,2013-05-06 20:04:00,
2013-05-06 15:06:00,61.7,53.3,30.06,NW,313,4.4,6.4,74,0.00,,BKN028,0.00,VWS V14.01,2013-05-06 20:06:00,
2013-05-06 15:08:00,61.7,53.3,30.06,NNE,23,7.2,7.6,74,0.00,,BKN028,0.00,VWS V14.01,2013-05-06 20:08:00,
2013-05-06 15:09:00,61.7,52.8,30.06,North,357,6.7,9.9,73,0.00,,OVC020,0.00,VWS V14.01,2013-05-06 20:09:00,
2013-05-06 15:10:00,61.7,52.8,30.06,NNE,28,3.9,9.9,73,0.00,,BKN028,0.00,VWS V14.01,2013-05-06 20:10:00,
2013-05-06 15:12:00,61.7,53.3,30.06,West,277,6.7,7.0,74,0.00,,BKN028,0.00,VWS V14.01,2013-05-06 20:12:00,
2013-05-06 15:14:00,61.7,52.8,30.06,North,350,5.0,7.6,73,0.00,,OVC020,0.00,VWS V14.01,2013-05-06 20:14:00,
2013-05-06 15:16:00,61.7,52.8,30.06,NNE,12,3.3,9.9,73,0.00,,BKN028,0.00,VWS V14.01,2013-05-06 20:16:00,
2013-05-06 15:18:00,61.9,53.0,30.06,NE,45,0.0,6.4,73,0.00,,BKN028,0.00,VWS V14.01,2013-05-06 20:18:00,
2013-05-06 15:19:00,62.1,53.2,30.06,WNW,296,3.9,4.1,73,0.00,,OVC022,0.00,VWS V14.01,2013-05-06 20:19:00,
2013-05-06 15:20:00,62.1,53.2,30.06,WNW,288,6.1,7.6,73,0.00,,BKN028,0.00,VWS V14.01,2013-05-06 20:20:00,
2013-05-06 15:22:00,62.2,53.3,30.06,NNE,25,10.0,10.8,73,0.00,,BKN028,0.00,VWS V14.01,2013-05-06 20:22:00,
2013-05-06 15:24:00,62.6,53.7,30.06,NE,41,3.9,10.5,73,0.00,,OVC022,0.00,VWS V14.01,2013-05-06 20:24:00,
2013-05-06 15:26:00,62.8,53.4,30.06,NW,305,7.2,8.1,71,0.00,,BKN028,0.00,VWS V14.01,2013-05-06 20:26:00,
2013-05-06 15:28:00,63.0,53.5,30.06,NNE,18,3.3,7.6,71,0.00,,BKN028,0.00,VWS V14.01,2013-05-06 20:28:00,
2013-05-06 15:29:00,63.1,53.7,30.06,NW,310,3.3,8.1,71,0.00,,OVC022,0.00,VWS V14.01,2013-05-06 20:29:00,
2013-05-06 15:30:00,63.1,53.7,30.06,NNE,14,5.0,8.1,71,0.00,,BKN028,0.00,VWS V14.01,2013-05-06 20:30:00,
2013-05-06 15:32:00,63.3,52.8,30.06,NW,326,3.9,5.2,69,0.00,,BKN028,0.00,VWS V14.01,2013-05-06 20:32:00,
2013-05-06 15:34:00,63.1,52.7,30.06,West,279,3.3,10.5,69,0.00,,OVC022,0.00,VWS V14.01,2013-05-06 20:34:00,
2013-05-06 15:36:00,63.1,52.7,30.06,WSW,255,4.4,6.4,69,0.00,,BKN028,0.00,VWS V14.01,2013-05-06 20:36:00,
2013-05-06 15:38:00,63.3,53.4,30.06,WNW,299,4.4,6.4,70,0.00,,BKN028,0.00,VWS V14.01,2013-05-06 20:38:00,
2013-05-06 15:39:00,63.5,53.5,30.06,West,279,2.8,7.6,70,0.00,,OVC030,0.00,VWS V14.01,2013-05-06 20:39:00,
2013-05-06 15:40:00,63.5,53.5,30.06,North,357,3.9,7.6,70,0.00,,BKN028,0.00,VWS V14.01,2013-05-06 20:40:00,
2013-05-06 15:42:00,63.5,53.0,30.06,NNE,28,3.9,10.8,69,0.00,,BKN028,0.00,VWS V14.01,2013-05-06 20:42:00,
2013-05-06 15:44:00,63.1,52.2,30.06,NW,318,6.7,10.8,67,0.00,,OVC030,0.00,VWS V14.01,2013-05-06 20:44:00,
2013-05-06 15:46:00,63.1,51.6,30.06,WNW,293,7.2,8.7,66,0.00,,BKN028,0.00,VWS V14.01,2013-05-06 20:46:00,
2013-05-06 15:48:00,63.0,51.4,30.06,WNW,292,10.3,10.8,66,0.00,,BKN028,0.00,VWS V14.01,2013-05-06 20:48:00,
2013-05-06 15:49:00,62.8,51.3,30.06,NE,34,6.7,10.8,66,0.00,,OVC030,0.00,VWS V14.01,2013-05-06 20:49:00,
2013-05-06 15:50:00,62.8,51.3,30.06,NE,38,7.8,10.8,66,0.00,,BKN028,0.00,VWS V14.01,2013-05-06 20:50:00,
2013-05-06 15:52:00,62.6,51.1,30.06,WNW,303,3.3,11.3,66,0.00,,BKN028,0.00,VWS V14.01,2013-05-06 20:52:00,
2013-05-06 15:54:00,62.8,51.8,30.06,NNW,329,4.4,8.1,67,0.00,,OVC030,0.00,VWS V14.01,2013-05-06 20:54:00,
2013-05-06 15:56:00,62.8,51.8,30.06,WNW,295,4.4,8.1,67,0.00,,BKN028,0.00,VWS V14.01,2013-05-06 20:56:00,
2013-05-06 15:58:00,62.8,51.8,30.03,NNE,33,5.0,11.3,67,0.00,,BKN028,0.00,VWS V14.01,2013-05-06 20:58:00,
2013-05-06 15:59:00,62.8,51.8,30.03,NNE,28,7.8,10.5,67,0.00,,OVC030,0.00,VWS V14.01,2013-05-06 20:59:00,
2013-05-06 16:00:00,62.8,51.8,30.03,NNE,19,6.1,10.5,67,0.00,,BKN028,0.00,VWS V14.01,2013-05-06 21:00:00,
2013-05-06 16:02:00,63.0,52.0,30.03,North,357,3.9,10.8,67,0.00,,BKN028,0.00,VWS V14.01,2013-05-06 21:02:00,
2013-05-06 16:04:00,62.8,51.3,30.03,NNE,25,7.2,10.5,66,0.00,,BKN032,0.00,VWS V14.01,2013-05-06 21:04:00,
2013-05-06 16:06:00,63.0,51.4,30.03,NNE,20,5.0,10.5,66,0.00,,BKN028,0.00,VWS V14.01,2013-05-06 21:06:00,
2013-05-06 16:08:00,63.0,51.4,30.03,NE,46,2.8,10.8,66,0.00,,BKN028,0.00,VWS V14.01,2013-05-06 21:08:00,
2013-05-06 16:09:00,63.0,51.4,30.03,NW,326,5.0,5.2,66,0.00,,BKN032,0.00,VWS V14.01,2013-05-06 21:09:00,
2013-05-06 16:10:00,63.0,51.4,30.03,NW,326,5.0,5.2,66,0.00,,BKN028,0.00,VWS V14.01,2013-05-06 21:10:00,
2013-05-06 16:12:00,63.0,51.4,30.03,South,189,5.0,7.6,66,0.00,,BKN028,0.00,VWS V14.01,2013-05-06 21:12:00,
2013-05-06 16:14:00,63.3,52.3,30.03,NW,315,7.8,9.9,67,0.00,,BKN032,0.00,VWS V14.01,2013-05-06 21:14:00,
2013-05-06 16:16:00,63.5,53.0,30.03,West,279,9.4,10.8,69,0.00,,BKN028,0.00,VWS V14.01,2013-05-06 21:16:00,
2013-05-06 16:18:00,63.7,53.2,30.03,NNE,18,3.9,10.5,69,0.00,,BKN028,0.00,VWS V14.01,2013-05-06 21:18:00,
2013-05-06 16:19:00,63.7,53.2,30.03,ENE,73,3.9,7.6,69,0.00,,OVC033,0.00,VWS V14.01,2013-05-06 21:19:00,
2013-05-06 16:20:00,63.7,53.2,30.03,ENE,65,2.8,7.6,69,0.00,,BKN028,0.00,VWS V14.01,2013-05-06 21:20:00,
2013-05-06 16:22:00,63.9,53.4,30.03,North,357,8.3,8.7,69,0.00,,BKN028,0.00,VWS V14.01,2013-05-06 21:22:00,
2013-05-06 16:24:00,64.0,53.5,30.03,ENE,70,7.2,8.7,69,0.00,,OVC033,0.00,VWS V14.01,2013-05-06 21:24:00,
2013-05-06 16:26:00,64.0,53.5,30.03,NNE,20,4.4,8.7,69,0.00,,BKN028,0.00,VWS V14.01,2013-05-06 21:26:00,
2013-05-06 16:28:00,64.2,53.7,30.03,WNW,296,5.0,8.7,69,0.00,,BKN028,0.00,VWS V14.01,2013-05-06 21:28:00,
2013-05-06 16:29:00,64.0,53.0,30.03,West,268,6.7,8.7,67,0.00,,OVC033,0.00,VWS V14.01,2013-05-06 21:29:00,
2013-05-06 16:30:00,64.0,52.5,30.03,WNW,302,6.1,8.1,66,0.00,,BKN028,0.00,VWS V14.01,2013-05-06 21:30:00,
2013-05-06 16:32:00,63.9,52.3,30.03,NE,34,3.9,6.4,66,0.00,,BKN028,0.00,VWS V14.01,2013-05-06 21:32:00,
2013-05-06 16:34:00,63.9,52.8,30.03,West,271,0.0,4.7,67,0.00,,BKN028,0.00,VWS V14.01,2013-05-06 21:34:00,
2013-05-06 16:35:00,63.9,52.3,30.03,North,4,3.3,4.7,66,0.00,,OVC033,0.00,VWS V14.01,2013-05-06 21:35:00,
2013-05-06 16:36:00,63.9,52.3,30.03,NE,36,3.9,5.2,66,0.00,,BKN028,0.00,VWS V14.01,2013-05-06 21:36:00,
2013-05-06 16:38:00,63.9,52.3,30.03,North,0,6.1,8.1,66,0.00,,BKN028,0.00,VWS V14.01,2013-05-06 21:38:00,
2013-05-06 16:40:00,63.9,52.3,30.03,NNE,19,7.8,10.5,66,0.00,,OVC033,0.00,VWS V14.01,2013-05-06 21:40:00,
2013-05-06 16:42:00,63.9,52.3,30.03,NNE,22,4.4,10.8,66,0.00,,BKN028,0.00,VWS V14.01,2013-05-06 21:42:00,
2013-05-06 16:44:00,64.2,52.6,30.03,NNE,19,5.0,8.1,66,0.00,,BKN028,0.00,VWS V14.01,2013-05-06 21:44:00,
2013-05-06 16:45:00,64.2,52.6,30.03,North,357,4.4,7.6,66,0.00,,OVC033,0.00,VWS V14.01,2013-05-06 21:45:00,
2013-05-06 16:46:00,64.2,52.6,30.03,NE,40,6.7,7.6,66,0.00,,BKN028,0.00,VWS V14.01,2013-05-06 21:46:00,
2013-05-06 16:48:00,64.2,52.1,30.03,NE,49,5.0,7.6,65,0.00,,BKN028,0.00,VWS V14.01,2013-05-06 21:48:00,
2013-05-06 16:50:00,64.0,51.9,30.03,NNE,23,7.8,9.9,65,0.00,,OVC033,0.00,VWS V14.01,2013-05-06 21:50:00,
2013-05-06 16:52:00,63.9,51.2,30.03,NE,49,6.1,8.1,63,0.00,,BKN028,0.00,VWS V14.01,2013-05-06 21:52:00,
2013-05-06 16:54:00,63.7,51.0,30.03,NNE,33,5.0,7.6,63,0.00,,BKN028,0.00,VWS V14.01,2013-05-06 21:54:00,
2013-05-06 16:55:00,63.7,51.0,30.03,North,357,4.4,7.6,63,0.00,,OVC033,0.00,VWS V14.01,2013-05-06 21:55:00,
2013-05-06 16:56:00,63.7,51.0,30.03,NE,55,3.3,7.6,63,0.00,,BKN028,0.00,VWS V14.01,2013-05-06 21:56:00,
2013-05-06 16:58:00,63.5,50.8,30.03,North,7,6.1,8.1,63,0.00,,BKN028,0.00,VWS V14.01,2013-05-06 21:58:00,
2013-05-06 17:00:00,63.3,50.7,30.03,NNE,19,7.2,8.1,63,0.00,,OVC026,0.12,VWS V14.01,2013-05-06 22:00:00,
2013-05-06 17:02:00,63.1,50.5,30.03,NNE,29,7.8,12.5,63,0.00,,BKN028,0.00,VWS V14.01,2013-05-06 22:02:00,
2013-05-06 17:04:00,63.1,50.5,30.03,ENE,57,9.4,9.9,63,0.00,,BKN028,0.00,VWS V14.01,2013-05-06 22:04:00,
2013-05-06 17:05:00,63.1,51.1,30.03,North,357,4.4,9.9,65,0.00,,OVC026,0.00,VWS V14.01,2013-05-06 22:05:00,
2013-05-06 17:06:00,63.1,51.1,30.03,NNE,22,10.3,10.8,65,0.00,,BKN028,0.00,VWS V14.01,2013-05-06 22:06:00,
2013-05-06 17:08:00,63.1,51.1,30.03,North,9,3.3,10.8,65,0.00,,BKN028,0.00,VWS V14.01,2013-05-06 22:08:00,
2013-05-06 17:10:00,63.0,50.9,30.03,NNE,16,6.7,11.3,65,0.00,,OVC026,0.00,VWS V14.01,2013-05-06 22:10:00,
2013-05-06 17:12:00,63.0,50.9,30.03,NNE,16,7.8,8.1,65,0.00,,BKN028,0.00,VWS V14.01,2013-05-06 22:12:00,
2013-05-06 17:14:00,63.0,50.9,30.03,NE,36,10.3,10.8,65,0.00,,BKN028,0.00,VWS V14.01,2013-05-06 22:14:00,
2013-05-06 17:15:00,63.0,50.9,30.03,North,11,3.9,10.8,65,0.00,,OVC026,0.00,VWS V14.01,2013-05-06 22:15:00,
2013-05-06 17:16:00,63.0,50.9,30.03,NW,308,4.4,10.8,65,0.00,,BKN028,0.00,VWS V14.01,2013-05-06 22:16:00,
2013-05-06 17:18:00,63.1,51.1,30.03,NNE,22,4.4,8.1,65,0.00,,BKN028,0.00,VWS V14.01,2013-05-06 22:18:00,
2013-05-06 17:20:00,63.7,52.1,30.03,NNE,14,5.0,10.8,66,0.00,,OVC026,0.00,VWS V14.01,2013-05-06 22:20:00,
2013-05-06 17:22:00,64.0,52.5,30.03,NNE,24,6.7,7.6,66,0.00,,BKN028,0.00,VWS V14.01,2013-05-06 22:22:00,
2013-05-06 17:24:00,64.4,52.8,30.03,NNE,17,2.8,7.0,66,0.00,,BKN028,0.00,VWS V14.01,2013-05-06 22:24:00,
2013-05-06 17:25:00,64.8,52.6,30.03,North,357,3.9,7.0,65,0.00,,OVC026,0.00,VWS V14.01,2013-05-06 22:25:00,
2013-05-06 17:26:00,64.8,52.6,30.06,NNE,26,6.7,7.0,65,0.00,,BKN028,0.00,VWS V14.01,2013-05-06 22:26:00,
2013-05-06 17:28:00,64.8,52.0,30.06,NNE,24,10.0,14.2,63,0.00,,BKN028,0.00,VWS V14.01,2013-05-06 22:28:00,
2013-05-06 17:30:00,64.8,51.5,30.06,NE,47,6.1,8.1,62,0.00,,OVC026,0.00,VWS V14.01,2013-05-06 22:30:00,
2013-05-06 17:32:00,64.4,51.1,30.06,ENE,68,4.4,8.1,62,0.00,,BKN028,0.00,VWS V14.01,2013-05-06 22:32:00,
2013-05-06 17:34:00,64.0,50.8,30.06,ENE,64,6.1,11.3,62,0.00,,BKN028,0.00,VWS V14.01,2013-05-06 22:34:00,
2013-05-06 17:35:00,63.9,50.6,30.06,NNE,26,3.9,11.3,62,0.00,,OVC026,0.00,VWS V14.01,2013-05-06 22:35:00,
2013-05-06 17:36:00,63.7,50.5,30.06,ENE,70,7.2,10.5,62,0.00,,BKN028,0.00,VWS V14.01,2013-05-06 22:36:00,
2013-05-06 17:38:00,63.3,50.1,30.06,NNE,25,10.0,10.8,62,0.00,,BKN028,0.00,VWS V14.01,2013-05-06 22:38:00,
2013-05-06 17:40:00,63.1,49.9,30.06,NNE,30,7.2,13.1,62,0.00,,OVC035,0.00,VWS V14.01,2013-05-06 22:40:00,
2013-05-06 17:42:00,63.0,49.8,30.03,NNE,29,5.0,8.1,62,0.00,,BKN028,0.00,VWS V14.01,2013-05-06 22:42:00,
2013-05-06 17:44:00,63.0,50.3,30.03,NNE,13,3.3,7.0,63,0.00,,BKN028,0.00,VWS V14.01,2013-05-06 22:44:00,
2013-05-06 17:45:00,63.0,50.3,30.03,NE,42,2.8,7.6,63,0.00,,OVC035,0.00,VWS V14.01,2013-05-06 22:45:00,
2013-05-06 17:46:00,63.0,50.3,30.03,North,4,3.3,7.6,63,0.00,,BKN028,0.00,VWS V14.01,2013-05-06 22:46:00,
2013-05-06 17:48:00,63.3,51.2,30.03,NW,324,6.1,7.0,65,0.00,,BKN028,0.00,VWS V14.01,2013-05-06 22:48:00,
2013-05-06 17:50:00,63.7,51.6,30.03,NNW,341,6.7,12.5,65,0.00,,OVC035,0.00,VWS V14.01,2013-05-06 22:50:00,
2013-05-06 17:52:00,63.7,51.6,30.03,NNE,16,7.8,8.7,65,0.00,,BKN028,0.00,VWS V14.01,2013-05-06 22:52:00,
2013-05-06 17:54:00,63.9,51.2,30.03,NW,310,7.2,11.3,63,0.00,,BKN028,0.00,VWS V14.01,2013-05-06 22:54:00,
2013-05-06 17:55:00,63.9,51.2,30.03,West,280,3.9,11.3,63,0.00,,OVC035,0.00,VWS V14.01,2013-05-06 22:55:00,
2013-05-06 17:56:00,63.9,51.2,30.03,NNE,32,4.4,7.6,63,0.00,,CLR,0.00,VWS V14.01,2013-05-06 22:56:00,
2013-05-06 17:58:00,63.9,51.2,30.03,NNE,30,6.7,9.9,63,0.00,,CLR,0.00,VWS V14.01,2013-05-06 22:58:00,
2013-05-06 18:03:00,63.9,51.2,30.03,North,357,4.4,4.7,63,0.00,,,0.00,VWS V14.01,2013-05-06 23:03:00,
2013-05-06 18:04:00,63.9,51.2,30.03,North,6,4.4,5.2,63,0.00,,CLR,0.00,VWS V14.01,2013-05-06 23:04:00,
2013-05-06 18:06:00,63.7,51.0,30.03,North,10,7.8,9.9,63,0.00,,CLR,0.00,VWS V14.01,2013-05-06 23:06:00,
2013-05-06 18:08:00,63.7,50.5,30.03,NNW,340,9.4,9.9,62,0.00,,BKN028,0.00,VWS V14.01,2013-05-06 23:08:00,
2013-05-06 18:10:00,63.7,50.5,30.03,WNW,298,2.8,9.9,62,0.00,,CLR,0.00,VWS V14.01,2013-05-06 23:10:00,
2013-05-06 18:12:00,63.7,50.5,30.03,WNW,292,5.0,5.2,62,0.00,,CLR,0.00,VWS V14.01,2013-05-06 23:12:00,
2013-05-06 18:13:00,63.5,50.3,30.03,NNE,13,7.2,7.6,62,0.00,,BKN028,0.00,VWS V14.01,2013-05-06 23:13:00,
2013-05-06 18:14:00,63.5,50.3,30.03,NNE,15,5.0,7.6,62,0.00,,CLR,0.00,VWS V14.01,2013-05-06 23:14:00,
2013-05-06 18:16:00,63.3,50.1,30.03,NNE,19,6.7,9.9,62,0.00,,CLR,0.00,VWS V14.01,2013-05-06 23:16:00,
2013-05-06 18:18:00,63.3,50.1,30.03,NE,44,7.8,8.1,62,0.00,,FEW026,0.00,VWS V14.01,2013-05-06 23:18:00,
2013-05-06 18:20:00,63.3,50.1,30.03,NW,316,0.0,8.1,62,0.00,,CLR,0.00,VWS V14.01,2013-05-06 23:20:00,
2013-05-06 18:22:00,63.3,50.1,30.03,NNW,342,4.4,8.1,62,0.00,,CLR,0.00,VWS V14.01,2013-05-06 23:22:00,
2013-05-06 18:23:00,63.3,50.1,30.03,NNE,31,5.0,7.0,62,0.00,,FEW026,0.00,VWS V14.01,2013-05-06 23:23:00,
2013-05-06 18:24:00,63.3,50.1,30.03,NNE,25,3.9,8.1,62,0.00,,CLR,0.00,VWS V14.01,2013-05-06 23:24:00,
2013-05-06 18:26:00,63.1,50.5,30.03,NNE,18,5.0,8.1,63,0.00,,CLR,0.00,VWS V14.01,2013-05-06 23:26:00,
2013-05-06 18:28:00,63.3,50.7,30.03,NW,324,3.3,8.1,63,0.00,,FEW026,0.00,VWS V14.01,2013-05-06 23:28:00,
2013-05-06 18:30:00,63.3,50.7,30.03,North,353,5.0,8.1,63,0.00,,CLR,0.00,VWS V14.01,2013-05-06 23:30:00,
2013-05-06 18:32:00,63.3,50.7,30.03,NNE,14,7.2,8.1,63,0.00,,CLR,0.00,VWS V14.01,2013-05-06 23:32:00,
2013-05-06 18:33:00,63.3,50.7,30.03,North,357,10.3,10.8,63,0.00,,FEW026,0.00,VWS V14.01,2013-05-06 23:33:00,
2013-05-06 18:34:00,63.3,50.7,30.03,North,5,7.2,11.3,63,0.00,,CLR,0.00,VWS V14.01,2013-05-06 23:34:00,
2013-05-06 18:36:00,63.3,50.7,30.03,NE,52,8.3,8.7,63,0.00,,CLR,0.00,VWS V14.01,2013-05-06 23:36:00,
2013-05-06 18:38:00,63.5,50.8,30.03,NNE,15,7.2,9.9,63,0.00,,CLR,0.00,VWS V14.01,2013-05-06 23:38:00,
2013-05-06 18:40:00,63.5,50.8,30.03,NNE,20,7.8,11.3,63,0.00,,CLR,0.00,VWS V14.01,2013-05-06 23:40:00,
2013-05-06 18:42:00,63.5,50.3,30.03,North,357,3.9,8.1,62,0.00,,CLR,0.00,VWS V14.01,2013-05-06 23:42:00,
2013-05-06 18:43:00,63.5,50.3,30.03,North,353,6.1,8.1,62,0.00,,CLR,0.00,VWS V14.01,2013-05-06 23:43:00,
2013-05-06 18:44:00,63.5,50.8,30.03,North,353,2.8,7.6,63,0.00,,CLR,0.00,VWS V14.01,2013-05-06 23:44:00,
2013-05-06 18:46:00,63.3,50.7,30.03,ENE,59,2.8,5.2,63,0.00,,CLR,0.00,VWS V14.01,2013-05-06 23:46:00,
2013-05-06 18:48:00,63.1,49.9,30.03,NNE,20,3.3,6.4,62,0.00,,CLR,0.00,VWS V14.01,2013-05-06 23:48:00,
2013-05-06 18:50:00,63.1,49.9,30.03,WNW,303,0.0,8.1,62,0.00,,CLR,0.00,VWS V14.01,2013-05-06 23:50:00,
2013-05-06 18:52:00,63.0,49.8,30.03,NNW,333,3.9,7.6,62,0.00,,CLR,0.00,VWS V14.01,2013-05-06 23:52:00,
2013-05-06 18:53:00,62.8,49.6,30.03,WNW,291,5.0,8.1,62,0.00,,CLR,0.00,VWS V14.01,2013-05-06 23:53:00,
2013-05-06 18:54:00,62.8,49.6,30.03,NNW,338,3.3,8.1,62,0.00,,CLR,0.00,VWS V14.01,2013-05-06 23:54:00,
2013-05-06 18:56:00,62.6,49.4,30.03,North,353,0.0,4.1,62,0.00,,CLR,0.00,VWS V14.01,2013-05-06 23:56:00,
2013-05-06 18:58:00,62.6,50.0,30.03,North,10,0.0,0.0,63,0.00,,CLR,0.00,VWS V14.01,2013-05-06 23:58:00,
2013-05-06 19:00:00,62.6,50.0,30.03,West,275,5.0,5.2,63,0.00,,CLR,0.00,VWS V14.01,2013-05-07 00:00:00,
2013-05-06 19:02:00,62.6,50.0,30.03,NNE,20,5.0,7.6,63,0.00,,CLR,0.00,VWS V14.01,2013-05-07 00:02:00,
2013-05-06 19:03:00,62.6,50.0,30.03,North,0,5.0,7.6,63,0.00,,CLR,0.00,VWS V14.01,2013-05-07 00:03:00,
2013-05-06 19:04:00,62.6,50.0,30.03,North,1,0.0,7.6,63,0.00,,CLR,0.00,VWS V14.01,2013-05-07 00:04:00,
2013-05-06 19:06:00,62.6,50.0,30.03,NNE,20,3.3,4.1,63,0.00,,CLR,0.00,VWS V14.01,2013-05-07 00:06:00,
2013-05-06 19:08:00,62.6,50.0,30.03,NE,48,5.0,7.0,63,0.00,,CLR,0.00,VWS V14.01,2013-05-07 00:08:00,
2013-05-06 19:09:00,62.6,50.0,30.03,North,357,4.4,7.0,63,0.00,,CLR,0.00,VWS V14.01,2013-05-07 00:09:00,
2013-05-06 19:10:00,62.4,50.4,30.03,NNE,20,4.4,6.4,65,0.00,,CLR,0.00,VWS V14.01,2013-05-07 00:10:00,
2013-05-06 19:12:00,62.4,50.4,30.03,North,2,4.4,7.0,65,0.00,,CLR,0.00,VWS V14.01,2013-05-07 00:12:00,
2013-05-06 19:14:00,62.4,50.4,30.03,North,5,6.1,6.4,65,0.00,,CLR,0.00,VWS V14.01,2013-05-07 00:14:00,
2013-05-06 19:16:00,62.2,50.2,30.03,North,357,6.1,7.0,65,0.00,,CLR,0.00,VWS V14.01,2013-05-07 00:16:00,
2013-05-06 19:18:00,62.1,50.0,30.03,North,357,0.0,8.1,65,0.00,,CLR,0.00,VWS V14.01,2013-05-07 00:18:00,
2013-05-06 19:19:00,62.1,50.0,30.03,North,0,0.0,5.2,65,0.00,,CLR,0.00,VWS V14.01,2013-05-07 00:19:00,
2013-05-06 19:20:00,62.1,50.0,30.03,WNW,299,3.9,4.1,65,0.00,,CLR,0.00,VWS V14.01,2013-05-07 00:20:00,
2013-05-06 19:22:00,61.9,49.9,30.03,North,353,0.0,4.1,65,0.00,,CLR,0.00,VWS V14.01,2013-05-07 00:22:00,
2013-05-06 19:24:00,61.9,49.9,30.03,NNE,13,0.0,4.1,65,0.00,,CLR,0.00,VWS V14.01,2013-05-07 00:24:00,
2013-05-06 19:26:00,61.7,49.7,30.03,North,353,3.3,5.2,65,0.00,,CLR,0.00,VWS V14.01,2013-05-07 00:26:00,
2013-05-06 19:28:00,61.7,49.7,30.03,North,357,4.4,7.0,65,0.00,,CLR,0.00,VWS V14.01,2013-05-07 00:28:00,
2013-05-06 19:29:00,61.5,49.5,30.03,NNE,14,5.0,7.0,65,0.00,,CLR,0.00,VWS V14.01,2013-05-07 00:29:00,
2013-05-06 19:30:00,61.5,49.5,30.03,North,9,2.8,7.0,65,0.00,,CLR,0.00,VWS V14.01,2013-05-07 00:30:00,
2013-05-06 19:32:00,61.3,49.3,30.03,WNW,290,3.3,7.0,65,0.00,,CLR,0.00,VWS V14.01,2013-05-07 00:32:00,
2013-05-06 19:34:00,61.3,49.4,30.03,North,350,4.4,5.2,65,0.00,,CLR,0.00,VWS V14.01,2013-05-07 00:34:00,
2013-05-06 19:36:00,61.2,49.7,30.03,NW,305,5.0,7.0,66,0.00,,CLR,0.00,VWS V14.01,2013-05-07 00:36:00,
2013-05-06 19:38:00,61.0,49.6,30.03,North,5,0.0,5.2,66,0.00,,CLR,0.00,VWS V14.01,2013-05-07 00:38:00,
2013-05-06 19:40:00,60.8,49.4,30.03,North,357,3.9,4.1,66,0.00,,CLR,0.00,VWS V14.01,2013-05-07 00:40:00,
2013-05-06 19:41:00,60.6,49.2,30.03,NNW,333,3.3,4.1,66,0.00,,CLR,0.00,VWS V14.01,2013-05-07 00:41:00,
2013-05-06 19:42:00,60.6,49.2,30.03,NNW,333,2.8,4.1,66,0.00,,CLR,0.00,VWS V14.01,2013-05-07 00:42:00,
2013-05-06 19:44:00,60.6,49.2,30.03,North,4,0.0,4.1,66,0.00,,CLR,0.00,VWS V14.01,2013-05-07 00:44:00,
2013-05-06 19:46:00,60.4,49.0,30.03,North,353,3.3,4.7,66,0.00,,CLR,0.00,VWS V14.01,2013-05-07 00:46:00,
2013-05-06 19:47:00,60.4,49.0,30.03,North,353,3.3,4.7,66,0.00,,CLR,0.00,VWS V14.01,2013-05-07 00:47:00,
2013-05-06 19:48:00,60.3,49.4,30.03,NNW,337,3.9,4.7,67,0.00,,CLR,0.00,VWS V14.01,2013-05-07 00:48:00,
2013-05-06 19:50:00,60.1,49.2,30.03,North,0,2.8,4.1,67,0.00,,CLR,0.00,VWS V14.01,2013-05-07 00:50:00,
2013-05-06 19:52:00,59.9,49.1,30.03,North,353,0.0,3.5,67,0.00,,CLR,0.00,VWS V14.01,2013-05-07 00:52:00,
2013-05-06 19:54:00,59.7,48.9,30.03,North,353,0.0,0.0,67,0.00,,CLR,0.00,VWS V14.01,2013-05-07 00:54:00,
2013-05-06 19:56:00,59.5,48.7,30.03,North,353,0.0,3.5,67,0.00,,CLR,0.00,VWS V14.01,2013-05-07 00:56:00,
2013-05-06 19:57:00,59.5,48.7,30.03,NNW,346,0.0,3.5,67,0.00,,CLR,0.00,VWS V14.01,2013-05-07 00:57:00,
2013-05-06 19:58:00,59.4,48.5,30.03,NNW,348,0.0,0.0,67,0.00,,CLR,0.00,VWS V14.01,2013-05-07 00:58:00,
2013-05-06 20:00:00,59.2,48.4,30.03,NW,320,3.9,5.2,67,0.00,,CLR,0.00,VWS V14.01,2013-05-07 01:00:00,
2013-05-06 20:02:00,58.8,48.5,30.03,NNE,14,3.3,4.1,69,0.00,,CLR,0.00,VWS V14.01,2013-05-07 01:02:00,
2013-05-06 20:04:00,58.6,48.4,30.03,NNE,17,0.0,3.5,69,0.00,,CLR,0.00,VWS V14.01,2013-05-07 01:04:00,
2013-05-06 20:06:00,58.5,48.2,30.03,North,11,0.0,4.7,69,0.00,,CLR,0.00,VWS V14.01,2013-05-07 01:06:00,
2013-05-06 20:07:00,58.3,48.0,30.03,North,0,2.8,4.7,69,0.00,,CLR,0.00,VWS V14.01,2013-05-07 01:07:00,
2013-05-06 20:08:00,58.1,47.9,30.03,North,357,3.3,4.1,69,0.00,,CLR,0.00,VWS V14.01,2013-05-07 01:08:00,
2013-05-06 20:10:00,57.9,47.7,30.03,North,357,0.0,3.5,69,0.00,,CLR,0.00,VWS V14.01,2013-05-07 01:10:00,
2013-05-06 20:12:00,57.6,47.3,30.03,NNE,19,3.9,4.1,69,0.00,,CLR,0.00,VWS V14.01,2013-05-07 01:12:00,
2013-05-06 20:14:00,57.4,47.7,30.03,NNE,29,5.0,5.2,70,0.00,,CLR,0.00,VWS V14.01,2013-05-07 01:14:00,
2013-05-06 20:16:00,57.2,47.5,30.03,NE,34,3.3,5.2,70,0.00,,CLR,0.00,VWS V14.01,2013-05-07 01:16:00,
2013-05-06 20:17:00,57.2,47.5,30.03,NE,45,3.9,4.7,70,0.00,,CLR,0.00,VWS V14.01,2013-05-07 01:17:00,
2013-05-06 20:18:00,57.2,47.5,30.03,NE,46,3.3,4.7,70,0.00,,CLR,0.00,VWS V14.01,2013-05-07 01:18:00,
2013-05-06 20:20:00,57.0,47.8,30.03,NE,35,2.8,4.1,71,0.00,,CLR,0.00,VWS V14.01,2013-05-07 01:20:00,
2013-05-06 20:22:00,56.7,47.5,30.03,NE,41,0.0,2.9,71,0.00,,CLR,0.00,VWS V14.01,2013-05-07 01:22:00,
2013-05-06 20:24:00,56.7,47.5,30.03,NE,41,0.0,0.0,71,0.00,,CLR,0.00,VWS V14.01,2013-05-07 01:24:00,
2013-05-06 20:26:00,56.5,47.8,30.06,NE,41,0.0,0.0,73,0.00,,CLR,0.00,VWS V14.01,2013-05-07 01:26:00,
2013-05-06 20:27:00,56.3,47.6,30.06,NE,41,0.0,0.0,73,0.00,,CLR,0.00,VWS V14.01,2013-05-07 01:27:00,
2013-05-06 20:28:00,56.3,47.6,30.06,NE,40,0.0,0.0,73,0.00,,CLR,0.00,VWS V14.01,2013-05-07 01:28:00,
2013-05-06 20:30:00,55.9,47.3,30.06,NE,39,0.0,0.0,73,0.00,,CLR,0.00,VWS V14.01,2013-05-07 01:30:00,
2013-05-06 20:32:00,55.8,47.6,30.06,NE,39,0.0,0.0,74,0.00,,CLR,0.00,VWS V14.01,2013-05-07 01:32:00,
2013-05-06 20:34:00,55.6,47.4,30.06,NE,40,0.0,0.0,74,0.00,,CLR,0.00,VWS V14.01,2013-05-07 01:34:00,
2013-05-06 20:36:00,55.4,47.2,30.06,NE,39,0.0,0.0,74,0.00,,CLR,0.00,VWS V14.01,2013-05-07 01:36:00,
2013-05-06 20:37:00,55.2,47.5,30.06,NE,39,0.0,0.0,75,0.00,,CLR,0.00,VWS V14.01,2013-05-07 01:37:00,
2013-05-06 20:38:00,55.0,47.4,30.06,NE,40,0.0,0.0,75,0.00,,CLR,0.00,VWS V14.01,2013-05-07 01:38:00,
2013-05-06 20:40:00,54.9,47.2,30.06,NE,39,0.0,0.0,75,0.00,,CLR,0.00,VWS V14.01,2013-05-07 01:40:00,
2013-05-06 20:42:00,54.7,47.0,30.06,NE,39,0.0,0.0,75,0.00,,CLR,0.00,VWS V14.01,2013-05-07 01:42:00,
2013-05-06 20:44:00,54.5,47.3,30.06,NE,39,0.0,0.0,77,0.00,,CLR,0.00,VWS V14.01,2013-05-07 01:44:00,
2013-05-06 20:46:00,54.3,47.1,30.06,NE,39,0.0,0.0,77,0.00,,CLR,0.00,VWS V14.01,2013-05-07 01:46:00,
2013-05-06 20:47:00,54.3,47.6,30.06,NE,39,0.0,0.0,78,0.00,,CLR,0.00,VWS V14.01,2013-05-07 01:47:00,
2013-05-06 20:48:00,54.3,47.6,30.06,NE,39,0.0,0.0,78,0.00,,CLR,0.00,VWS V14.01,2013-05-07 01:48:00,
2013-05-06 20:50:00,54.1,47.4,30.06,NE,39,0.0,0.0,78,0.00,,CLR,0.00,VWS V14.01,2013-05-07 01:50:00,
2013-05-06 20:52:00,53.8,47.0,30.06,NE,39,0.0,0.0,78,0.00,,CLR,0.00,VWS V14.01,2013-05-07 01:52:00,
2013-05-06 20:54:00,53.6,46.9,30.06,NE,40,0.0,0.0,78,0.00,,CLR,0.00,VWS V14.01,2013-05-07 01:54:00,
2013-05-06 20:56:00,53.4,47.2,30.06,NE,40,0.0,0.0,79,0.00,,CLR,0.00,VWS V14.01,2013-05-07 01:56:00,
2013-05-06 20:57:00,53.2,47.0,30.06,NE,39,0.0,0.0,79,0.00,,CLR,0.00,VWS V14.01,2013-05-07 01:57:00,
2013-05-06 20:58:00,53.2,47.0,30.06,NE,40,0.0,0.0,79,0.00,,CLR,0.00,VWS V14.01,2013-05-07 01:58:00,
2013-05-06 21:00:00,53.1,47.2,30.06,NE,40,0.0,0.0,81,0.00,,CLR,0.00,VWS V14.01,2013-05-07 02:00:00,
2013-05-06 21:02:00,52.7,46.9,30.06,NE,39,0.0,0.0,81,0.00,,CLR,0.00,VWS V14.01,2013-05-07 02:02:00,
2013-05-06 21:04:00,52.7,46.9,30.06,NE,39,0.0,0.0,81,0.00,,CLR,0.00,VWS V14.01,2013-05-07 02:04:00,
2013-05-06 21:06:00,52.5,46.7,30.06,NE,39,0.0,0.0,81,0.00,,CLR,0.00,VWS V14.01,2013-05-07 02:06:00,
2013-05-06 21:07:00,52.3,47.0,30.06,NE,39,0.0,0.0,82,0.00,,CLR,0.00,VWS V14.01,2013-05-07 02:07:00,
2013-05-06 21:08:00,52.3,47.0,30.06,NE,39,0.0,0.0,82,0.00,,CLR,0.00,VWS V14.01,2013-05-07 02:08:00,
2013-05-06 21:10:00,52.2,46.8,30.06,NE,39,0.0,0.0,82,0.00,,CLR,0.00,VWS V14.01,2013-05-07 02:10:00,
2013-05-06 21:12:00,52.0,46.6,30.06,NE,39,0.0,0.0,82,0.00,,CLR,0.00,VWS V14.01,2013-05-07 02:12:00,
2013-05-06 21:14:00,52.0,47.0,30.06,NE,39,0.0,0.0,83,0.00,,CLR,0.00,VWS V14.01,2013-05-07 02:14:00,
2013-05-06 21:16:00,51.8,46.9,30.06,NE,39,0.0,0.0,83,0.00,,CLR,0.00,VWS V14.01,2013-05-07 02:16:00,
2013-05-06 21:17:00,51.8,46.9,30.06,NE,39,0.0,0.0,83,0.00,,CLR,0.00,VWS V14.01,2013-05-07 02:17:00,
2013-05-06 21:18:00,51.6,46.7,30.06,NE,39,0.0,0.0,83,0.00,,CLR,0.00,VWS V14.01,2013-05-07 02:18:00,
2013-05-06 21:20:00,51.6,47.1,30.06,NE,39,0.0,0.0,84,0.00,,CLR,0.00,VWS V14.01,2013-05-07 02:20:00,
2013-05-06 21:22:00,51.6,47.1,30.06,NE,39,0.0,0.0,84,0.00,,CLR,0.00,VWS V14.01,2013-05-07 02:22:00,
2013-05-06 21:24:00,51.4,46.9,30.06,NE,39,0.0,0.0,84,0.00,,CLR,0.00,VWS V14.01,2013-05-07 02:24:00,
2013-05-06 21:26:00,51.4,47.3,30.06,NE,39,0.0,0.0,86,0.00,,CLR,0.00,VWS V14.01,2013-05-07 02:26:00,
2013-05-06 21:28:00,51.4,47.3,30.06,NE,39,0.0,0.0,86,0.00,,CLR,0.00,VWS V14.01,2013-05-07 02:28:00,
2013-05-06 21:30:00,51.6,47.5,30.06,NE,39,0.0,0.0,86,0.00,,CLR,0.00,VWS V14.01,2013-05-07 02:30:00,
2013-05-06 21:32:00,51.6,47.9,30.06,NE,39,0.0,0.0,87,0.00,,CLR,0.00,VWS V14.01,2013-05-07 02:32:00,
2013-05-06 21:33:00,51.6,47.9,30.06,NE,39,0.0,0.0,87,0.00,,CLR,0.00,VWS V14.01,2013-05-07 02:33:00,
2013-05-06 21:34:00,51.6,47.9,30.06,NE,39,0.0,0.0,87,0.00,,CLR,0.00,VWS V14.01,2013-05-07 02:34:00,
2013-05-06 21:36:00,51.6,47.9,30.06,NE,39,0.0,0.0,87,0.00,,CLR,0.00,VWS V14.01,2013-05-07 02:36:00,
2013-05-06 21:38:00,51.4,47.7,30.06,NE,39,0.0,0.0,87,0.00,,CLR,0.00,VWS V14.01,2013-05-07 02:38:00,
2013-05-06 21:40:00,51.4,47.7,30.06,NE,39,0.0,0.0,87,0.00,,CLR,0.00,VWS V14.01,2013-05-07 02:40:00,
2013-05-06 21:42:00,51.3,48.0,30.09,NE,39,0.0,0.0,88,0.00,,CLR,0.00,VWS V14.01,2013-05-07 02:42:00,
2013-05-06 21:43:00,51.3,48.0,30.09,NE,39,0.0,0.0,88,0.00,,CLR,0.00,VWS V14.01,2013-05-07 02:43:00,
2013-05-06 21:44:00,51.1,47.8,30.09,NE,39,0.0,0.0,88,0.00,,CLR,0.00,VWS V14.01,2013-05-07 02:44:00,
2013-05-06 21:46:00,51.1,47.8,30.09,NE,39,0.0,0.0,88,0.00,,CLR,0.00,VWS V14.01,2013-05-07 02:46:00,
2013-05-06 21:48:00,51.1,47.8,30.09,NE,39,0.0,0.0,88,0.00,,CLR,0.00,VWS V14.01,2013-05-07 02:48:00,
2013-05-06 21:50:00,50.9,47.6,30.09,NE,39,0.0,0.0,88,0.00,,CLR,0.00,VWS V14.01,2013-05-07 02:50:00,
2013-05-06 21:52:00,50.9,48.0,30.09,NE,39,0.0,0.0,90,0.00,,CLR,0.00,VWS V14.01,2013-05-07 02:52:00,
2013-05-06 21:53:00,50.7,47.8,30.09,NE,39,0.0,0.0,90,0.00,,CLR,0.00,VWS V14.01,2013-05-07 02:53:00,
2013-05-06 21:54:00,50.7,47.8,30.09,NE,39,0.0,0.0,90,0.00,,CLR,0.00,VWS V14.01,2013-05-07 02:54:00,
2013-05-06 21:56:00,50.7,47.8,30.09,NE,39,0.0,0.0,90,0.00,,CLR,0.00,VWS V14.01,2013-05-07 02:56:00,
2013-05-06 21:58:00,50.7,47.8,30.09,NE,39,0.0,0.0,90,0.00,,CLR,0.00,VWS V14.01,2013-05-07 02:58:00,
2013-05-06 22:00:00,50.7,48.2,30.09,NE,39,0.0,0.0,91,0.00,,CLR,0.00,VWS V14.01,2013-05-07 03:00:00,
2013-05-06 22:02:00,50.7,48.2,30.09,NE,39,0.0,0.0,91,0.00,,CLR,0.00,VWS V14.01,2013-05-07 03:02:00,
2013-05-06 22:03:00,50.5,48.0,30.09,NE,39,0.0,0.0,91,0.00,,CLR,0.00,VWS V14.01,2013-05-07 03:03:00,
2013-05-06 22:04:00,50.5,48.0,30.09,NE,39,0.0,0.0,91,0.00,,CLR,0.00,VWS V14.01,2013-05-07 03:04:00,
2013-05-06 22:06:00,50.4,47.9,30.09,NE,39,0.0,0.0,91,0.00,,CLR,0.00,VWS V14.01,2013-05-07 03:06:00,
2013-05-06 22:08:00,50.4,47.9,30.09,NE,39,0.0,0.0,91,0.00,,CLR,0.00,VWS V14.01,2013-05-07 03:08:00,
2013-05-06 22:10:00,50.2,47.7,30.09,NE,39,0.0,0.0,91,0.00,,CLR,0.00,VWS V14.01,2013-05-07 03:10:00,
2013-05-06 22:12:00,50.2,47.7,30.09,NE,39,0.0,0.0,91,0.00,,CLR,0.00,VWS V14.01,2013-05-07 03:12:00,
2013-05-06 22:13:00,50.2,48.1,30.09,NE,39,0.0,0.0,92,0.00,,CLR,0.00,VWS V14.01,2013-05-07 03:13:00,
2013-05-06 22:14:00,50.2,48.1,30.09,NE,39,0.0,0.0,92,0.00,,CLR,0.00,VWS V14.01,2013-05-07 03:14:00,
2013-05-06 22:16:00,50.0,47.9,30.09,NE,39,0.0,0.0,92,0.00,,CLR,0.00,VWS V14.01,2013-05-07 03:16:00,
2013-05-06 22:18:00,50.0,47.9,30.09,NE,39,0.0,0.0,92,0.00,,CLR,0.00,VWS V14.01,2013-05-07 03:18:00,
2013-05-06 22:20:00,49.8,47.7,30.09,NE,39,0.0,0.0,92,0.00,,CLR,0.00,VWS V14.01,2013-05-07 03:20:00,
2013-05-06 22:22:00,49.6,47.5,30.09,NE,39,0.0,0.0,92,0.00,,CLR,0.00,VWS V14.01,2013-05-07 03:22:00,
2013-05-06 22:23:00,49.6,47.5,30.09,NE,39,0.0,0.0,92,0.00,,CLR,0.00,VWS V14.01,2013-05-07 03:23:00,
2013-05-06 22:24:00,49.5,47.3,30.09,NE,39,0.0,0.0,92,0.00,,CLR,0.00,VWS V14.01,2013-05-07 03:24:00,
2013-05-06 22:26:00,49.5,47.3,30.09,NE,39,0.0,0.0,92,0.00,,CLR,0.00,VWS V14.01,2013-05-07 03:26:00,
2013-05-06 22:28:00,49.3,47.5,30.09,NE,39,0.0,0.0,94,0.00,,CLR,0.00,VWS V14.01,2013-05-07 03:28:00,
2013-05-06 22:30:00,49.3,47.5,30.09,NE,39,0.0,0.0,94,0.00,,CLR,0.00,VWS V14.01,2013-05-07 03:30:00,
2013-05-06 22:32:00,49.1,47.4,30.09,NE,39,0.0,0.0,94,0.00,,CLR,0.00,VWS V14.01,2013-05-07 03:32:00,
2013-05-06 22:33:00,49.1,47.4,30.09,NE,39,0.0,0.0,94,0.00,,CLR,0.00,VWS V14.01,2013-05-07 03:33:00,
2013-05-06 22:34:00,49.1,47.4,30.09,NE,39,0.0,0.0,94,0.00,,CLR,0.00,VWS V14.01,2013-05-07 03:34:00,
2013-05-06 22:36:00,49.1,47.4,30.09,NE,39,0.0,0.0,94,0.00,,CLR,0.00,VWS V14.01,2013-05-07 03:36:00,
2013-05-06 22:38:00,49.1,47.7,30.09,NE,39,0.0,0.0,95,0.00,,CLR,0.00,VWS V14.01,2013-05-07 03:38:00,
2013-05-06 22:40:00,49.3,47.9,30.09,NE,39,0.0,0.0,95,0.00,,CLR,0.00,VWS V14.01,2013-05-07 03:40:00,
2013-05-06 22:42:00,49.5,48.1,30.09,NE,39,0.0,0.0,95,0.00,,CLR,0.00,VWS V14.01,2013-05-07 03:42:00,
2013-05-06 22:43:00,49.5,48.1,30.09,NE,39,0.0,0.0,95,0.00,,CLR,0.00,VWS V14.01,2013-05-07 03:43:00,
2013-05-06 22:44:00,49.3,47.9,30.09,NE,39,0.0,0.0,95,0.00,,CLR,0.00,VWS V14.01,2013-05-07 03:44:00,
2013-05-06 22:46:00,49.3,47.9,30.09,NE,39,0.0,0.0,95,0.00,,CLR,0.00,VWS V14.01,2013-05-07 03:46:00,
2013-05-06 22:48:00,49.3,47.9,30.09,NE,39,0.0,0.0,95,0.00,,CLR,0.00,VWS V14.01,2013-05-07 03:48:00,
2013-05-06 22:50:00,49.3,47.9,30.09,NE,39,0.0,0.0,95,0.00,,CLR,0.00,VWS V14.01,2013-05-07 03:50:00,
2013-05-06 22:52:00,49.1,47.7,30.09,NE,39,0.0,0.0,95,0.00,,CLR,0.00,VWS V14.01,2013-05-07 03:52:00,
2013-05-06 22:53:00,49.1,48.1,30.09,NE,39,0.0,0.0,96,0.00,,CLR,0.00,VWS V14.01,2013-05-07 03:53:00,
2013-05-06 22:54:00,49.1,48.1,30.09,NE,39,0.0,0.0,96,0.00,,CLR,0.00,VWS V14.01,2013-05-07 03:54:00,
2013-05-06 22:56:00,49.1,48.1,30.09,NE,39,0.0,0.0,96,0.00,,CLR,0.00,VWS V14.01,2013-05-07 03:56:00,
2013-05-06 22:58:00,48.9,47.9,30.09,NE,39,0.0,0.0,96,0.00,,CLR,0.00,VWS V14.01,2013-05-07 03:58:00,
2013-05-06 23:00:00,48.9,47.9,30.09,NE,39,0.0,0.0,96,0.00,,CLR,0.00,VWS V14.01,2013-05-07 04:00:00,
2013-05-06 23:01:00,48.9,47.9,30.09,NE,39,0.0,0.0,96,0.00,,CLR,0.00,VWS V14.01,2013-05-07 04:01:00,
2013-05-06 23:02:00,48.7,47.8,30.09,NE,39,0.0,0.0,96,0.00,,CLR,0.00,VWS V14.01,2013-05-07 04:02:00,
2013-05-06 23:04:00,48.7,47.8,30.09,NE,39,0.0,0.0,96,0.00,,CLR,0.00,VWS V14.01,2013-05-07 04:04:00,
2013-05-06 23:06:00,48.7,47.8,30.09,NE,39,0.0,0.0,96,0.00,,CLR,0.00,VWS V14.01,2013-05-07 04:06:00,
2013-05-06 23:08:00,48.6,47.6,30.09,NE,39,0.0,0.0,96,0.00,,CLR,0.00,VWS V14.01,2013-05-07 04:08:00,
2013-05-06 23:10:00,48.4,47.4,30.09,NE,39,0.0,0.0,96,0.00,,CLR,0.00,VWS V14.01,2013-05-07 04:10:00,
2013-05-06 23:12:00,48.4,47.4,30.09,NE,39,0.0,0.0,96,0.00,,CLR,0.00,VWS V14.01,2013-05-07 04:12:00,
2013-05-06 23:13:00,48.4,47.4,30.09,NE,39,0.0,0.0,96,0.00,,CLR,0.00,VWS V14.01,2013-05-07 04:13:00,
2013-05-06 23:14:00,48.2,47.2,30.09,NE,39,0.0,0.0,96,0.00,,CLR,0.00,VWS V14.01,2013-05-07 04:14:00,
2013-05-06 23:16:00,48.2,47.2,30.09,NE,39,0.0,0.0,96,0.00,,CLR,0.00,VWS V14.01,2013-05-07 04:16:00,
2013-05-06 23:18:00,48.2,47.2,30.09,NE,39,0.0,0.0,96,0.00,,CLR,0.00,VWS V14.01,2013-05-07 04:18:00,
2013-05-06 23:20:00,48.0,47.4,30.09,NE,39,0.0,0.0,98,0.00,,CLR,0.00,VWS V14.01,2013-05-07 04:20:00,
2013-05-06 23:22:00,48.0,47.4,30.09,NE,39,0.0,0.0,98,0.00,,CLR,0.00,VWS V14.01,2013-05-07 04:22:00,
2013-05-06 23:23:00,48.0,47.4,30.09,NE,39,0.0,0.0,98,0.00,,CLR,0.00,VWS V14.01,2013-05-07 04:23:00,
2013-05-06 23:24:00,48.0,47.4,30.09,NE,39,0.0,0.0,98,0.00,,CLR,0.00,VWS V14.01,2013-05-07 04:24:00,
2013-05-06 23:26:00,47.8,47.2,30.09,NE,39,0.0,0.0,98,0.00,,CLR,0.00,VWS V14.01,2013-05-07 04:26:00,
2013-05-06 23:28:00,47.8,47.2,30.09,NE,39,0.0,0.0,98,0.00,,CLR,0.00,VWS V14.01,2013-05-07 04:28:00,
2013-05-06 23:30:00,47.7,47.0,30.09,NE,39,0.0,0.0,98,0.00,,CLR,0.00,VWS V14.01,2013-05-07 04:30:00,
2013-05-06 23:32:00,47.7,47.0,30.09,NE,39,0.0,0.0,98,0.00,,CLR,0.00,VWS V14.01,2013-05-07 04:32:00,
2013-05-06 23:33:00,47.7,47.0,30.09,NE,39,0.0,0.0,98,0.00,,CLR,0.00,VWS V14.01,2013-05-07 04:33:00,
2013-05-06 23:34:00,47.7,47.0,30.09,NE,39,0.0,0.0,98,0.00,,CLR,0.00,VWS V14.01,2013-05-07 04:34:00,
2013-05-06 23:36:00,47.7,47.4,30.09,NE,39,0.0,0.0,99,0.00,,CLR,0.00,VWS V14.01,2013-05-07 04:36:00,
2013-05-06 23:38:00,47.8,47.6,30.09,NE,39,0.0,0.0,99,0.00,,CLR,0.00,VWS V14.01,2013-05-07 04:38:00,
2013-05-06 23:40:00,47.8,47.6,30.09,NE,39,0.0,0.0,99,0.00,,CLR,0.00,VWS V14.01,2013-05-07 04:40:00,
2013-05-06 23:42:00,47.8,47.6,30.09,NE,39,0.0,0.0,99,0.00,,CLR,0.00,VWS V14.01,2013-05-07 04:42:00,
2013-05-06 23:43:00,48.0,47.8,30.09,NE,39,0.0,0.0,99,0.00,,CLR,0.00,VWS V14.01,2013-05-07 04:43:00,
2013-05-06 23:44:00,48.0,47.8,30.09,NE,39,0.0,0.0,99,0.00,,CLR,0.00,VWS V14.01,2013-05-07 04:44:00,
2013-05-06 23:46:00,48.0,47.8,30.09,NE,39,0.0,0.0,99,0.00,,CLR,0.00,VWS V14.01,2013-05-07 04:46:00,
2013-05-06 23:48:00,47.8,47.6,30.09,NE,39,0.0,0.0,99,0.00,,CLR,0.00,VWS V14.01,2013-05-07 04:48:00,
2013-05-06 23:50:00,47.8,47.6,30.09,NE,39,0.0,0.0,99,0.00,,CLR,0.00,VWS V14.01,2013-05-07 04:50:00,
2013-05-06 23:52:00,47.7,47.4,30.09,NE,39,0.0,0.0,99,0.00,,CLR,0.00,VWS V14.01,2013-05-07 04:52:00,
2013-05-06 23:53:00,47.7,47.4,30.09,NE,39,0.0,0.0,99,0.00,,CLR,0.00,VWS V14.01,2013-05-07 04:53:00,
2013-05-06 23:54:00,47.7,47.4,30.09,NE,39,0.0,0.0,99,0.00,,CLR,0.00,VWS V14.01,2013-05-07 04:54:00,
2013-05-06 23:56:00,47.7,47.4,30.09,NE,39,0.0,0.0,99,0.00,,CLR,0.00,VWS V14.01,2013-05-07 04:56:00,
2013-05-06 23:58:00,47.7,47.4,30.09,NE,39,0.0,0.0,99,0.00,,CLR,0.00,VWS V14.01,2013-05-07 04:58:00,